| time (UTC) | temp F | wind direction | speed MPH | gust MPH | rain 1hr in | rain 24hr in | rain mn in | humidity % | barometer mb |
| 20260503020621 | 50 | 64 | 2.0 | 3.0 | 0.00 | 0.00 | 0.00 | 72 | 1018.0 |
| 20260503020548 | 50 | 100 | 1.0 | 3.0 | 0.00 | 0.00 | 0.00 | 72 | 1018.0 |
| 20260503020450 | 50 | 82 | 2.0 | 3.0 | 0.00 | 0.00 | 0.00 | 72 | 1018.0 |
| 20260503020348 | 50 | 96 | 2.0 | 3.0 | 0.00 | 0.00 | 0.00 | 72 | 1018.2 |
| 20260503020317 | 49 | 70 | 1.0 | 2.0 | 0.00 | 0.00 | 0.00 | 75 | 1018.2 |
| 20260503020311 | 50 | 64 | 2.0 | 3.0 | 0.00 | 0.00 | 0.00 | 73 | 1018.3 |
| 20260503020305 | 50 | 76 | 2.0 | 3.0 | 0.00 | 0.00 | 0.00 | 72 | 1018.0 |
| 20260503020248 | 50 | 66 | 3.0 | 3.0 | 0.00 | 0.00 | 0.00 | 73 | 1018.1 |
| 20260503020233 | 50 | 62 | 2.0 | 3.0 | 0.00 | 0.00 | 0.00 | 73 | 1018.1 |
| 20260503020224 | 50 | 68 | 2.0 | 3.0 | 0.00 | 0.00 | 0.00 | 73 | 1018.1 |
| 20260503020000 | 50 | 67 | 2.0 | 3.0 | 0.00 | 0.00 | 0.00 | 73 | 1018.0 |
| 20260503015943 | 50 | 86 | 2.0 | 3.0 | 0.00 | 0.00 | 0.00 | 73 | 1018.0 |
| 20260503015928 | 50 | 68 | 1.0 | 3.0 | 0.00 | 0.00 | 0.00 | 73 | 1018.2 |
| 20260503015912 | 50 | 67 | 2.0 | 3.0 | 0.00 | 0.00 | 0.00 | 73 | 1018.2 |
| 20260503015645 | 50 | 77 | 1.0 | 3.0 | 0.00 | 0.00 | 0.00 | 73 | 1018.3 |
| 20260503015629 | 50 | 94 | 1.0 | 2.0 | 0.00 | 0.00 | 0.00 | 73 | 1018.0 |
| 20260503015612 | 49 | 68 | 2.0 | 2.0 | 0.00 | 0.00 | 0.00 | 74 | 1018.1 |
| 20260503015336 | 49 | 68 | 1.0 | 2.0 | 0.00 | 0.00 | 0.00 | 75 | 1018.0 |
| 20260503015044 | 49 | 78 | 1.0 | 2.0 | 0.00 | 0.00 | 0.00 | 75 | 1018.2 |
| 20260503014944 | 49 | 104 | 2.0 | 2.0 | 0.00 | 0.00 | 0.00 | 76 | 1017.9 |
| 20260503014844 | 48 | 128 | 1.0 | 1.0 | 0.00 | 0.00 | 0.00 | 76 | 1018.3 |
| 20260503014743 | 48 | 128 | 1.0 | 1.0 | 0.00 | 0.00 | 0.00 | 76 | 1018.0 |
| 20260503014642 | 48 | 133 | 1.0 | 1.0 | 0.00 | 0.00 | 0.00 | 77 | 1018.2 |
| 20260503014616 | 48 | 133 | 1.0 | 1.0 | 0.00 | 0.00 | 0.00 | 77 | 1018.1 |
| 20260503014543 | 48 | 136 | 1.0 | 1.0 | 0.00 | 0.00 | 0.00 | 77 | 1018.1 |
| 20260503014443 | 48 | 137 | 0.0 | 1.0 | 0.00 | 0.00 | 0.00 | 78 | 1018.4 |
| 20260503014343 | 48 | 148 | 1.0 | 1.0 | 0.00 | 0.00 | 0.00 | 78 | 1018.2 |
| 20260503014234 | 48 | 168 | 0.0 | 1.0 | 0.00 | 0.00 | 0.00 | 78 | 1018.2 |
| 20260503014132 | 48 | 163 | 0.0 | 1.0 | 0.00 | 0.00 | 0.00 | 78 | 1018.3 |
| 20260503014116 | 48 | 155 | 0.0 | 1.0 | 0.00 | 0.00 | 0.00 | 78 | 1018.3 |
| 20260503014031 | 48 | 150 | 1.0 | 1.0 | 0.00 | 0.00 | 0.00 | 78 | 1018.3 |
| 20260503014004 | 48 | 167 | 0.0 | 1.0 | 0.00 | 0.00 | 0.00 | 77 | 1018.3 |
| 20260503013948 | 48 | 164 | 0.0 | 1.0 | 0.00 | 0.00 | 0.00 | 77 | 1018.1 |
| 20260503013610 | 49 | 175 | 0.0 | 1.0 | 0.00 | 0.00 | 0.00 | 76 | 1018.3 |
| 20260503013526 | 49 | 174 | 0.0 | 1.0 | 0.00 | 0.00 | 0.00 | 76 | 1018.1 |
| 20260503013427 | 49 | 171 | 0.0 | 1.0 | 0.00 | 0.00 | 0.00 | 76 | 1018.3 |
| 20260503013329 | 49 | 171 | 0.0 | 1.0 | 0.00 | 0.00 | 0.00 | 75 | 1018.3 |
| 20260503013313 | 49 | 170 | 0.0 | 1.0 | 0.00 | 0.00 | 0.00 | 76 | 1018.2 |
| 20260503013257 | 49 | 169 | 0.0 | 1.0 | 0.00 | 0.00 | 0.00 | 75 | 1018.2 |
| 20260503013242 | 49 | 167 | 0.0 | 1.0 | 0.00 | 0.00 | 0.00 | 75 | 1018.2 |
| 20260503012925 | 49 | 154 | 1.0 | 1.0 | 0.00 | 0.00 | 0.00 | 76 | 1018.3 |
| 20260503012822 | 50 | 172 | 0.0 | 1.0 | 0.00 | 0.00 | 0.00 | 74 | 1018.1 |
| 20260503012721 | 51 | 172 | 0.0 | 1.0 | 0.00 | 0.00 | 0.00 | 73 | 1018.1 |
| 20260503012605 | 51 | 172 | 0.0 | 1.0 | 0.00 | 0.00 | 0.00 | 72 | 1018.4 |
| 20260503012521 | 51 | 170 | 0.0 | 1.0 | 0.00 | 0.00 | 0.00 | 71 | 1018.3 |
| 20260503012421 | 51 | 165 | 0.0 | 1.0 | 0.00 | 0.00 | 0.00 | 71 | 1018.5 |
| 20260503012321 | 51 | 163 | 0.0 | 1.0 | 0.00 | 0.00 | 0.00 | 70 | 1017.9 |
| 20260503012221 | 51 | 160 | 0.0 | 1.0 | 0.00 | 0.00 | 0.00 | 70 | 1018.1 |
| 20260503012119 | 51 | 159 | 0.0 | 1.0 | 0.00 | 0.00 | 0.00 | 70 | 1018.4 |
| 20260503012104 | 51 | 158 | 0.0 | 1.0 | 0.00 | 0.00 | 0.00 | 70 | 1018.4 |
| 20260503012019 | 51 | 158 | 0.0 | 1.0 | 0.00 | 0.00 | 0.00 | 70 | 1018.4 |
| 20260503011919 | 51 | 157 | 0.0 | 1.0 | 0.00 | 0.00 | 0.00 | 70 | 1018.3 |
| 20260503011843 | 51 | 160 | 0.0 | 1.0 | 0.00 | 0.00 | 0.00 | 70 | 1018.1 |
| 20260503011827 | 51 | 159 | 0.0 | 1.0 | 0.00 | 0.00 | 0.00 | 70 | 1018.4 |
| 20260503011601 | 51 | 158 | 0.0 | 1.0 | 0.00 | 0.00 | 0.00 | 70 | 1018.4 |
| 20260503011503 | 51 | 158 | 0.0 | 1.0 | 0.00 | 0.00 | 0.00 | 70 | 1018.5 |
| 20260503011401 | 51 | 161 | 0.0 | 1.0 | 0.00 | 0.00 | 0.00 | 70 | 1018.4 |
| 20260503011256 | 51 | 161 | 0.0 | 1.0 | 0.00 | 0.00 | 0.00 | 70 | 1018.4 |
| 20260503011156 | 51 | 162 | 0.0 | 1.0 | 0.00 | 0.00 | 0.00 | 70 | 1018.3 |
| 20260503011058 | 51 | 161 | 0.0 | 1.0 | 0.00 | 0.00 | 0.00 | 70 | 1018.3 |
| 20260503010956 | 51 | 161 | 0.0 | 1.0 | 0.00 | 0.00 | 0.00 | 70 | 1018.3 |
| 20260503010858 | 51 | 160 | 0.0 | 1.0 | 0.00 | 0.00 | 0.00 | 70 | 1018.4 |
| 20260503010756 | 51 | 159 | 0.0 | 1.0 | 0.00 | 0.00 | 0.00 | 70 | 1018.4 |
| 20260503010738 | 51 | 157 | 0.0 | 1.0 | 0.00 | 0.00 | 0.00 | 70 | 1018.2 |
| 20260503010715 | 52 | 153 | 0.0 | 1.0 | 0.00 | 0.00 | 0.00 | 70 | 1018.4 |
| 20260503010431 | 52 | 146 | 1.0 | 2.0 | 0.00 | 0.00 | 0.00 | 70 | 1018.3 |
| 20260503010415 | 52 | 149 | 0.0 | 2.0 | 0.00 | 0.00 | 0.00 | 70 | 1018.3 |
| 20260503010109 | 52 | 145 | 1.0 | 2.0 | 0.00 | 0.00 | 0.00 | 70 | 1018.3 |
| 20260503005955 | 52 | 133 | 0.0 | 2.0 | 0.00 | 0.00 | 0.00 | 70 | 1018.1 |
| 20260503005855 | 52 | 140 | 1.0 | 2.0 | 0.00 | 0.00 | 0.00 | 70 | 1018.3 |
| 20260503005753 | 52 | 148 | 0.0 | 2.0 | 0.00 | 0.00 | 0.00 | 70 | 1018.1 |
| 20260503005652 | 52 | 135 | 1.0 | 2.0 | 0.00 | 0.00 | 0.00 | 70 | 1018.3 |
| 20260503005549 | 52 | 152 | 0.0 | 2.0 | 0.00 | 0.00 | 0.00 | 70 | 1018.4 |
| 20260503005445 | 52 | 129 | 1.0 | 2.0 | 0.00 | 0.00 | 0.00 | 70 | 1018.5 |
| 20260503005344 | 52 | 135 | 1.0 | 2.0 | 0.00 | 0.00 | 0.00 | 70 | 1018.5 |
| 20260503005326 | 52 | 154 | 0.0 | 2.0 | 0.00 | 0.00 | 0.00 | 69 | 1018.2 |
| 20260503005310 | 52 | 154 | 1.0 | 1.0 | 0.00 | 0.00 | 0.00 | 70 | 1018.2 |
| 20260503005042 | 52 | 170 | 0.0 | 0.0 | 0.00 | 0.00 | 0.00 | 70 | 1018.4 |
| 20260503004735 | 52 | 150 | 1.0 | 1.0 | 0.00 | 0.00 | 0.00 | 70 | 1018.5 |
| 20260503004636 | 52 | 170 | 0.0 | 1.0 | 0.00 | 0.00 | 0.00 | 70 | 1018.4 |
| 20260503004535 | 52 | 174 | 0.0 | 1.0 | 0.00 | 0.00 | 0.00 | 70 | 1018.7 |
| 20260503004501 | 52 | 173 | 0.0 | 1.0 | 0.00 | 0.00 | 0.00 | 70 | 1018.7 |
| 20260503004430 | 51 | 174 | 0.0 | 1.0 | 0.00 | 0.00 | 0.00 | 70 | 1018.5 |
| 20260503004330 | 51 | 175 | 0.0 | 1.0 | 0.00 | 0.00 | 0.00 | 70 | 1018.4 |
| 20260503004229 | 51 | 177 | 0.0 | 0.0 | 0.00 | 0.00 | 0.00 | 70 | 1018.2 |
| 20260503004130 | 51 | 175 | 0.0 | 0.0 | 0.00 | 0.00 | 0.00 | 70 | 1018.5 |
| 20260503004029 | 51 | 174 | 0.0 | 0.0 | 0.00 | 0.00 | 0.00 | 70 | 1018.5 |
| 20260503004012 | 51 | 174 | 0.0 | 0.0 | 0.00 | 0.00 | 0.00 | 71 | 1018.5 |
| 20260503004005 | 51 | 173 | 0.0 | 0.0 | 0.00 | 0.00 | 0.00 | 71 | 1018.3 |
| 20260503003949 | 51 | 172 | 0.0 | 0.0 | 0.00 | 0.00 | 0.00 | 71 | 1018.5 |
| 20260503003629 | 50 | 172 | 0.0 | 0.0 | 0.00 | 0.00 | 0.00 | 72 | 1018.5 |
| 20260503003529 | 50 | 171 | 0.0 | 1.0 | 0.00 | 0.00 | 0.00 | 72 | 1018.2 |
| 20260503003449 | 50 | 171 | 0.0 | 1.0 | 0.00 | 0.00 | 0.00 | 73 | 1018.2 |
| 20260503003428 | 50 | 171 | 0.0 | 1.0 | 0.00 | 0.00 | 0.00 | 73 | 1018.4 |
| 20260503003328 | 50 | 171 | 0.0 | 1.0 | 0.00 | 0.00 | 0.00 | 73 | 1018.7 |
| 20260503003228 | 50 | 170 | 0.0 | 1.0 | 0.00 | 0.00 | 0.00 | 74 | 1018.4 |
| 20260503003128 | 50 | 171 | 0.0 | 1.0 | 0.00 | 0.00 | 0.00 | 74 | 1018.3 |
| 20260503003028 | 51 | 172 | 0.0 | 1.0 | 0.00 | 0.00 | 0.00 | 73 | 1018.4 |
| 20260503002948 | 51 | 172 | 0.0 | 1.0 | 0.00 | 0.00 | 0.00 | 72 | 1018.4 |
| 20260503002919 | 51 | 173 | 0.0 | 1.0 | 0.00 | 0.00 | 0.00 | 72 | 1018.5 |
| 20260503002817 | 51 | 172 | 0.0 | 1.0 | 0.00 | 0.00 | 0.00 | 71 | 1018.5 |
| 20260503002713 | 51 | 171 | 0.0 | 1.0 | 0.00 | 0.00 | 0.00 | 70 | 1018.4 |
| 20260503002647 | 51 | 171 | 1.0 | 1.0 | 0.00 | 0.00 | 0.00 | 70 | 1018.4 |
| 20260503002631 | 51 | 175 | 0.0 | 0.0 | 0.00 | 0.00 | 0.00 | 71 | 1018.7 |
| 20260503002619 | 51 | 175 | 0.0 | 0.0 | 0.00 | 0.00 | 0.00 | 71 | 1018.7 |
| 20260503002306 | 51 | 175 | 0.0 | 0.0 | 0.00 | 0.00 | 0.00 | 71 | 1018.5 |
| 20260503002207 | 51 | 174 | 0.0 | 0.0 | 0.00 | 0.00 | 0.00 | 72 | 1018.4 |
| 20260503002106 | 51 | 174 | 0.0 | 0.0 | 0.00 | 0.00 | 0.00 | 72 | 1018.7 |
| 20260503002005 | 51 | 174 | 0.0 | 0.0 | 0.00 | 0.00 | 0.00 | 72 | 1018.5 |
| 20260503001930 | 50 | 174 | 0.0 | 0.0 | 0.00 | 0.00 | 0.00 | 72 | 1018.5 |
| 20260503001905 | 50 | 174 | 0.0 | 0.0 | 0.00 | 0.00 | 0.00 | 73 | 1018.8 |
| 20260503001806 | 50 | 174 | 0.0 | 0.0 | 0.00 | 0.00 | 0.00 | 73 | 1018.3 |
| 20260503001705 | 50 | 174 | 0.0 | 0.0 | 0.00 | 0.00 | 0.00 | 73 | 1018.4 |
| 20260503001606 | 49 | 174 | 0.0 | 0.0 | 0.00 | 0.00 | 0.00 | 74 | 1018.5 |
| 20260503001533 | 49 | 174 | 0.0 | 0.0 | 0.00 | 0.00 | 0.00 | 75 | 1018.5 |
| 20260503001516 | 49 | 173 | 0.0 | 0.0 | 0.00 | 0.00 | 0.00 | 75 | 1018.5 |
| 20260503001506 | 49 | 173 | 0.0 | 0.0 | 0.00 | 0.00 | 0.00 | 75 | 1018.5 |
| 20260503001143 | 50 | 165 | 0.0 | 0.0 | 0.00 | 0.00 | 0.00 | 75 | 1018.5 |
| 20260503001124 | 50 | 164 | 0.0 | 0.0 | 0.00 | 0.00 | 0.00 | 74 | 1018.3 |
| 20260503001108 | 51 | 163 | 0.0 | 1.0 | 0.00 | 0.00 | 0.00 | 73 | 1018.3 |
| 20260503001057 | 51 | 163 | 0.0 | 1.0 | 0.00 | 0.00 | 0.00 | 73 | 1018.4 |
| 20260503000742 | 52 | 163 | 0.0 | 1.0 | 0.00 | 0.00 | 0.00 | 72 | 1018.7 |
| 20260503000644 | 52 | 163 | 0.0 | 1.0 | 0.00 | 0.00 | 0.00 | 71 | 1018.4 |
| 20260503000544 | 53 | 158 | 0.0 | 1.0 | 0.00 | 0.00 | 0.00 | 70 | 1018.3 |
| 20260503000442 | 53 | 157 | 0.0 | 1.0 | 0.00 | 0.00 | 0.00 | 68 | 1018.4 |
| 20260503000422 | 53 | 157 | 0.0 | 1.0 | 0.00 | 0.00 | 0.00 | 68 | 1018.5 |
| 20260503000415 | 53 | 157 | 0.0 | 1.0 | 0.00 | 0.00 | 0.00 | 67 | 1018.3 |
| 20260503000355 | 53 | 153 | 0.0 | 1.0 | 0.00 | 0.00 | 0.00 | 67 | 1018.4 |
| 20260503000034 | 53 | 152 | 0.0 | 1.0 | 0.00 | 0.00 | 0.00 | 67 | 1018.7 |
| 20260503000005 | 51 | 147 | 1.0 | 2.0 | 0.00 | 0.00 | 0.00 | 72 | 1018.8 |
| 20260503000000 | 53 | 158 | 0.0 | 2.0 | 0.00 | 0.00 | 0.00 | 69 | 1018.9 |
| 20260502235953 | 53 | 155 | 0.0 | 1.0 | 0.00 | 0.00 | 0.00 | 67 | 1018.7 |
| 20260502235939 | 53 | 155 | 0.0 | 1.0 | 0.00 | 0.00 | 0.00 | 66 | 1018.7 |
| 20260502235930 | 54 | 154 | 0.0 | 1.0 | 0.00 | 0.00 | 0.00 | 66 | 1018.8 |
| 20260502235914 | 54 | 154 | 0.0 | 1.0 | 0.00 | 0.00 | 0.00 | 66 | 1018.5 |
| 20260502235858 | 54 | 154 | 0.0 | 1.0 | 0.00 | 0.00 | 0.00 | 66 | 1018.7 |
| 20260502235842 | 54 | 157 | 0.0 | 1.0 | 0.00 | 0.00 | 0.00 | 66 | 1018.3 |
| 20260502235826 | 54 | 156 | 0.0 | 1.0 | 0.00 | 0.00 | 0.00 | 66 | 1018.7 |
| 20260502235813 | 54 | 157 | 0.0 | 1.0 | 0.00 | 0.00 | 0.00 | 66 | 1018.7 |
| 20260502235541 | 54 | 153 | 0.0 | 1.0 | 0.00 | 0.00 | 0.00 | 66 | 1018.5 |
| 20260502235525 | 53 | 153 | 0.0 | 1.0 | 0.00 | 0.00 | 0.00 | 66 | 1018.9 |
| 20260502235510 | 53 | 150 | 0.0 | 1.0 | 0.00 | 0.00 | 0.00 | 66 | 1018.7 |
| 20260502235453 | 53 | 164 | 0.0 | 1.0 | 0.00 | 0.00 | 0.00 | 67 | 1018.8 |
| 20260502235441 | 53 | 167 | 0.0 | 1.0 | 0.00 | 0.00 | 0.00 | 67 | 1018.8 |
| 20260502235212 | 53 | 169 | 0.0 | 1.0 | 0.00 | 0.00 | 0.00 | 67 | 1018.5 |
| 20260502235156 | 53 | 168 | 0.0 | 1.0 | 0.00 | 0.00 | 0.00 | 67 | 1018.8 |
| 20260502234920 | 52 | 170 | 0.0 | 1.0 | 0.00 | 0.00 | 0.00 | 68 | 1018.7 |
| 20260502234859 | 52 | 168 | 0.0 | 1.0 | 0.00 | 0.00 | 0.00 | 68 | 1018.7 |
| 20260502234841 | 52 | 169 | 0.0 | 1.0 | 0.00 | 0.00 | 0.00 | 69 | 1018.9 |
| 20260502234825 | 52 | 169 | 0.0 | 1.0 | 0.00 | 0.00 | 0.00 | 70 | 1018.7 |
| 20260502234809 | 51 | 161 | 0.0 | 1.0 | 0.00 | 0.00 | 0.00 | 70 | 1018.8 |
| 20260502234322 | 51 | 167 | 0.0 | 2.0 | 0.00 | 0.00 | 0.00 | 73 | 1018.7 |
| 20260502234307 | 51 | 163 | 0.0 | 2.0 | 0.00 | 0.00 | 0.00 | 72 | 1018.9 |
| 20260502233309 | 53 | 157 | 0.0 | 2.0 | 0.00 | 0.00 | 0.00 | 68 | 1018.8 |
| 20260502233245 | 54 | 157 | 0.0 | 2.0 | 0.00 | 0.00 | 0.00 | 67 | 1018.8 |
| 20260502233230 | 54 | 152 | 0.0 | 2.0 | 0.00 | 0.00 | 0.00 | 66 | 1018.7 |
| 20260502233215 | 54 | 146 | 0.0 | 2.0 | 0.00 | 0.00 | 0.00 | 65 | 1018.8 |
| 20260502233159 | 54 | 159 | 0.0 | 1.0 | 0.00 | 0.00 | 0.00 | 66 | 1018.7 |
| 20260502233146 | 54 | 160 | 0.0 | 1.0 | 0.00 | 0.00 | 0.00 | 66 | 1018.7 |
| 20260502232608 | 54 | 162 | 0.0 | 1.0 | 0.00 | 0.00 | 0.00 | 65 | 1018.9 |
| 20260502232507 | 54 | 163 | 0.0 | 1.0 | 0.00 | 0.00 | 0.00 | 64 | 1018.7 |
| 20260502232439 | 55 | 167 | 0.0 | 0.0 | 0.00 | 0.00 | 0.00 | 64 | 1018.8 |
| 20260502232425 | 55 | 166 | 0.0 | 1.0 | 0.00 | 0.00 | 0.00 | 64 | 1018.8 |
| 20260502232414 | 55 | 166 | 0.0 | 1.0 | 0.00 | 0.00 | 0.00 | 64 | 1018.8 |
| 20260502232358 | 55 | 165 | 0.0 | 1.0 | 0.00 | 0.00 | 0.00 | 64 | 1018.9 |
| 20260502232123 | 55 | 165 | 0.0 | 1.0 | 0.00 | 0.00 | 0.00 | 64 | 1018.8 |
| 20260502232108 | 55 | 164 | 0.0 | 1.0 | 0.00 | 0.00 | 0.00 | 64 | 1018.7 |
| 20260502232056 | 55 | 164 | 0.0 | 1.0 | 0.00 | 0.00 | 0.00 | 64 | 1019.0 |
| 20260502232046 | 55 | 163 | 0.0 | 1.0 | 0.00 | 0.00 | 0.00 | 64 | 1019.0 |
| 20260502231812 | 54 | 161 | 0.0 | 1.0 | 0.00 | 0.00 | 0.00 | 64 | 1018.8 |
| 20260502231539 | 54 | 157 | 0.0 | 1.0 | 0.00 | 0.00 | 0.00 | 65 | 1018.7 |
| 20260502231228 | 54 | 162 | 0.0 | 1.0 | 0.00 | 0.00 | 0.00 | 65 | 1018.9 |
| 20260502231126 | 54 | 163 | 0.0 | 1.0 | 0.00 | 0.00 | 0.00 | 65 | 1018.8 |
| 20260502231024 | 54 | 163 | 0.0 | 1.0 | 0.00 | 0.00 | 0.00 | 65 | 1018.8 |
| 20260502230925 | 54 | 163 | 0.0 | 1.0 | 0.00 | 0.00 | 0.00 | 65 | 1018.8 |
| 20260502230832 | 54 | 163 | 0.0 | 1.0 | 0.00 | 0.00 | 0.00 | 65 | 1019.0 |
| 20260502230824 | 54 | 162 | 0.0 | 1.0 | 0.00 | 0.00 | 0.00 | 65 | 1019.0 |
| 20260502230722 | 54 | 163 | 0.0 | 1.0 | 0.00 | 0.00 | 0.00 | 65 | 1018.7 |
| 20260502230657 | 54 | 164 | 0.0 | 1.0 | 0.00 | 0.00 | 0.00 | 66 | 1019.1 |
| 20260502230641 | 54 | 161 | 0.0 | 1.0 | 0.00 | 0.00 | 0.00 | 66 | 1018.9 |
| 20260502230402 | 55 | 159 | 0.0 | 1.0 | 0.00 | 0.00 | 0.00 | 64 | 1019.0 |
| 20260502230347 | 54 | 160 | 0.0 | 1.0 | 0.00 | 0.00 | 0.00 | 66 | 1018.9 |
| 20260502230330 | 54 | 164 | 0.0 | 1.0 | 0.00 | 0.00 | 0.00 | 66 | 1018.8 |
| 20260502230314 | 54 | 163 | 0.0 | 1.0 | 0.00 | 0.00 | 0.00 | 66 | 1019.0 |
| 20260502230258 | 54 | 160 | 0.0 | 1.0 | 0.00 | 0.00 | 0.00 | 65 | 1018.8 |
| 20260502230242 | 55 | 160 | 0.0 | 1.0 | 0.00 | 0.00 | 0.00 | 65 | 1019.0 |
| 20260502225711 | 55 | 158 | 0.0 | 1.0 | 0.00 | 0.00 | 0.00 | 63 | 1018.8 |
| 20260502225611 | 55 | 157 | 0.0 | 1.0 | 0.00 | 0.00 | 0.00 | 63 | 1018.9 |
| 20260502225511 | 55 | 153 | 0.0 | 1.0 | 0.00 | 0.00 | 0.00 | 63 | 1018.9 |
| 20260502225411 | 55 | 156 | 0.0 | 0.0 | 0.00 | 0.00 | 0.00 | 63 | 1018.9 |
| 20260502225311 | 55 | 160 | 0.0 | 0.0 | 0.00 | 0.00 | 0.00 | 63 | 1019.1 |
| 20260502225212 | 55 | 157 | 0.0 | 0.0 | 0.00 | 0.00 | 0.00 | 63 | 1018.9 |
| 20260502225112 | 55 | 163 | 0.0 | 0.0 | 0.00 | 0.00 | 0.00 | 63 | 1019.0 |
| 20260502225012 | 55 | 165 | 0.0 | 1.0 | 0.00 | 0.00 | 0.00 | 62 | 1019.0 |
| 20260502224911 | 55 | 166 | 0.0 | 1.0 | 0.00 | 0.00 | 0.00 | 62 | 1019.1 |
| 20260502224850 | 55 | 167 | 0.0 | 1.0 | 0.00 | 0.00 | 0.00 | 62 | 1019.0 |
| 20260502224835 | 55 | 166 | 0.0 | 1.0 | 0.00 | 0.00 | 0.00 | 62 | 1019.0 |
| 20260502224603 | 55 | 170 | 0.0 | 2.0 | 0.00 | 0.00 | 0.00 | 62 | 1019.1 |
| 20260502224556 | 55 | 167 | 0.0 | 1.0 | 0.00 | 0.00 | 0.00 | 62 | 1019.1 |
| 20260502224540 | 55 | 170 | 0.0 | 1.0 | 0.00 | 0.00 | 0.00 | 63 | 1019.1 |
| 20260502224311 | 55 | 170 | 0.0 | 2.0 | 0.00 | 0.00 | 0.00 | 62 | 1019.1 |
| 20260502224249 | 56 | 170 | 0.0 | 2.0 | 0.00 | 0.00 | 0.00 | 62 | 1019.3 |
| 20260502224232 | 56 | 172 | 0.0 | 2.0 | 0.00 | 0.00 | 0.00 | 62 | 1019.2 |
| 20260502223910 | 56 | 155 | 0.0 | 2.0 | 0.00 | 0.00 | 0.00 | 61 | 1019.0 |
| 20260502223854 | 56 | 132 | 0.0 | 3.0 | 0.00 | 0.00 | 0.00 | 61 | 1019.1 |
| 20260502223838 | 56 | 152 | 0.0 | 2.0 | 0.00 | 0.00 | 0.00 | 61 | 1019.3 |
| 20260502223823 | 56 | 143 | 0.0 | 2.0 | 0.00 | 0.00 | 0.00 | 61 | 1019.2 |
| 20260502223806 | 56 | 147 | 0.0 | 2.0 | 0.00 | 0.00 | 0.00 | 61 | 1019.1 |
| 20260502223532 | 56 | 115 | 1.0 | 3.0 | 0.00 | 0.00 | 0.00 | 61 | 1019.0 |
| 20260502223252 | 56 | 114 | 0.0 | 3.0 | 0.00 | 0.00 | 0.00 | 61 | 1019.1 |
| 20260502223154 | 56 | 102 | 1.0 | 3.0 | 0.00 | 0.00 | 0.00 | 61 | 1019.2 |
| 20260502223052 | 56 | 89 | 1.0 | 3.0 | 0.00 | 0.00 | 0.00 | 62 | 1019.0 |
| 20260502223035 | 56 | 91 | 1.0 | 3.0 | 0.00 | 0.00 | 0.00 | 62 | 1019.2 |
| 20260502223019 | 56 | 101 | 1.0 | 3.0 | 0.00 | 0.00 | 0.00 | 62 | 1019.0 |
| 20260502223005 | 56 | 101 | 0.0 | 3.0 | 0.00 | 0.00 | 0.00 | 62 | 1018.9 |
| 20260502222724 | 56 | 66 | 2.0 | 3.0 | 0.00 | 0.00 | 0.00 | 62 | 1019.2 |
| 20260502222709 | 56 | 85 | 1.0 | 3.0 | 0.00 | 0.00 | 0.00 | 61 | 1019.2 |
| 20260502222348 | 56 | 67 | 2.0 | 3.0 | 0.00 | 0.00 | 0.00 | 61 | 1018.9 |
| 20260502222308 | 56 | 75 | 1.0 | 3.0 | 0.00 | 0.00 | 0.00 | 61 | 1019.0 |
| 20260502222247 | 56 | 74 | 1.0 | 3.0 | 0.00 | 0.00 | 0.00 | 61 | 1019.0 |
| 20260502222221 | 56 | 73 | 2.0 | 3.0 | 0.00 | 0.00 | 0.00 | 61 | 1019.0 |
| 20260502222206 | 56 | 111 | 1.0 | 2.0 | 0.00 | 0.00 | 0.00 | 61 | 1019.1 |
| 20260502221932 | 57 | 149 | 0.0 | 2.0 | 0.00 | 0.00 | 0.00 | 59 | 1019.1 |
| 20260502221926 | 57 | 148 | 0.0 | 2.0 | 0.00 | 0.00 | 0.00 | 59 | 1019.2 |
| 20260502221918 | 56 | 128 | 1.0 | 2.0 | 0.00 | 0.00 | 0.00 | 61 | 1019.1 |
| 20260502221903 | 56 | 131 | 1.0 | 2.0 | 0.00 | 0.00 | 0.00 | 61 | 1019.1 |
| 20260502221855 | 56 | 135 | 0.0 | 2.0 | 0.00 | 0.00 | 0.00 | 61 | 1019.1 |
| 20260502221840 | 56 | 152 | 0.0 | 1.0 | 0.00 | 0.00 | 0.00 | 60 | 1019.2 |
| 20260502221824 | 57 | 151 | 0.0 | 1.0 | 0.00 | 0.00 | 0.00 | 60 | 1019.2 |
| 20260502221807 | 57 | 152 | 1.0 | 1.0 | 0.00 | 0.00 | 0.00 | 60 | 1019.2 |
| 20260502221752 | 57 | 152 | 0.0 | 1.0 | 0.00 | 0.00 | 0.00 | 59 | 1019.1 |
| 20260502221525 | 57 | 150 | 0.0 | 2.0 | 0.00 | 0.00 | 0.00 | 59 | 1019.3 |
| 20260502221248 | 57 | 148 | 1.0 | 2.0 | 0.00 | 0.00 | 0.00 | 59 | 1019.2 |
| 20260502221012 | 57 | 148 | 0.0 | 2.0 | 0.00 | 0.00 | 0.00 | 59 | 1019.2 |
| 20260502220740 | 57 | 145 | 0.0 | 2.0 | 0.00 | 0.00 | 0.00 | 59 | 1019.3 |
| 20260502220640 | 57 | 159 | 0.0 | 2.0 | 0.00 | 0.00 | 0.00 | 60 | 1019.1 |
| 20260502220545 | 57 | 163 | 0.0 | 1.0 | 0.00 | 0.00 | 0.00 | 61 | 1019.5 |
| 20260502220540 | 57 | 158 | 0.0 | 2.0 | 0.00 | 0.00 | 0.00 | 60 | 1019.3 |
| 20260502220525 | 57 | 153 | 0.0 | 2.0 | 0.00 | 0.00 | 0.00 | 60 | 1019.3 |
| 20260502220509 | 57 | 155 | 0.0 | 1.0 | 0.00 | 0.00 | 0.00 | 60 | 1019.5 |
| 20260502220230 | 57 | 163 | 0.0 | 1.0 | 0.00 | 0.00 | 0.00 | 59 | 1019.3 |
| 20260502220123 | 57 | 164 | 0.0 | 1.0 | 0.00 | 0.00 | 0.00 | 59 | 1019.4 |
| 20260502220024 | 57 | 164 | 0.0 | 1.0 | 0.00 | 0.00 | 0.00 | 59 | 1019.4 |
| 20260502215924 | 57 | 164 | 0.0 | 1.0 | 0.00 | 0.00 | 0.00 | 59 | 1019.4 |
| 20260502215822 | 57 | 163 | 0.0 | 1.0 | 0.00 | 0.00 | 0.00 | 59 | 1019.5 |
| 20260502215743 | 57 | 163 | 0.0 | 1.0 | 0.00 | 0.00 | 0.00 | 59 | 1019.5 |
| 20260502215722 | 57 | 162 | 0.0 | 1.0 | 0.00 | 0.00 | 0.00 | 59 | 1019.4 |
| 20260502215622 | 57 | 164 | 0.0 | 1.0 | 0.00 | 0.00 | 0.00 | 59 | 1019.3 |
| 20260502215522 | 57 | 164 | 0.0 | 1.0 | 0.00 | 0.00 | 0.00 | 59 | 1019.2 |
| 20260502215423 | 57 | 151 | 0.0 | 1.0 | 0.00 | 0.00 | 0.00 | 59 | 1019.1 |
| 20260502215338 | 57 | 145 | 0.0 | 1.0 | 0.00 | 0.00 | 0.00 | 60 | 1019.3 |
| 20260502215324 | 57 | 155 | 0.0 | 1.0 | 0.00 | 0.00 | 0.00 | 60 | 1019.3 |
| 20260502215314 | 57 | 154 | 0.0 | 1.0 | 0.00 | 0.00 | 0.00 | 60 | 1019.2 |
| 20260502215259 | 57 | 153 | 0.0 | 1.0 | 0.00 | 0.00 | 0.00 | 60 | 1019.2 |
| 20260502215244 | 57 | 150 | 1.0 | 1.0 | 0.00 | 0.00 | 0.00 | 60 | 1019.2 |
| 20260502215228 | 57 | 136 | 1.0 | 1.0 | 0.00 | 0.00 | 0.00 | 60 | 1019.3 |
| 20260502214955 | 56 | 143 | 0.0 | 1.0 | 0.00 | 0.00 | 0.00 | 60 | 1019.2 |
| 20260502214946 | 56 | 143 | 1.0 | 1.0 | 0.00 | 0.00 | 0.00 | 60 | 1019.3 |
| 20260502214450 | 57 | 150 | 0.0 | 1.0 | 0.00 | 0.00 | 0.00 | 60 | 1019.5 |
| 20260502214434 | 57 | 150 | 1.0 | 1.0 | 0.00 | 0.00 | 0.00 | 59 | 1019.1 |
| 20260502214421 | 57 | 150 | 0.0 | 1.0 | 0.00 | 0.00 | 0.00 | 59 | 1019.3 |
| 20260502214133 | 57 | 146 | 0.0 | 1.0 | 0.00 | 0.00 | 0.00 | 59 | 1019.4 |
| 20260502214114 | 57 | 141 | 0.0 | 1.0 | 0.00 | 0.00 | 0.00 | 59 | 1019.4 |
| 20260502213753 | 57 | 149 | 0.0 | 1.0 | 0.00 | 0.00 | 0.00 | 60 | 1019.3 |
| 20260502213725 | 57 | 149 | 0.0 | 1.0 | 0.00 | 0.00 | 0.00 | 59 | 1019.3 |
| 20260502213654 | 57 | 150 | 0.0 | 1.0 | 0.00 | 0.00 | 0.00 | 60 | 1019.3 |
| 20260502213553 | 57 | 150 | 0.0 | 1.0 | 0.00 | 0.00 | 0.00 | 59 | 1019.4 |
| 20260502213530 | 57 | 150 | 0.0 | 1.0 | 0.00 | 0.00 | 0.00 | 59 | 1019.3 |
| 20260502213514 | 57 | 162 | 0.0 | 2.0 | 0.00 | 0.00 | 0.00 | 60 | 1019.5 |
| 20260502213225 | 56 | 165 | 0.0 | 2.0 | 0.00 | 0.00 | 0.00 | 60 | 1019.3 |
| 20260502213142 | 57 | 165 | 0.0 | 2.0 | 0.00 | 0.00 | 0.00 | 60 | 1019.3 |
| 20260502213041 | 57 | 167 | 0.0 | 2.0 | 0.00 | 0.00 | 0.00 | 60 | 1019.5 |
| 20260502213016 | 57 | 167 | 0.0 | 2.0 | 0.00 | 0.00 | 0.00 | 60 | 1019.4 |
| 20260502213000 | 57 | 168 | 0.0 | 2.0 | 0.00 | 0.00 | 0.00 | 60 | 1019.5 |
| 20260502212727 | 57 | 166 | 0.0 | 2.0 | 0.00 | 0.00 | 0.00 | 60 | 1019.6 |
| 20260502212716 | 57 | 162 | 0.0 | 2.0 | 0.00 | 0.00 | 0.00 | 60 | 1019.4 |
| 20260502212701 | 57 | 153 | 0.0 | 2.0 | 0.00 | 0.00 | 0.00 | 60 | 1019.5 |
| 20260502212645 | 57 | 159 | 0.0 | 1.0 | 0.00 | 0.00 | 0.00 | 60 | 1019.4 |
| 20260502212628 | 57 | 158 | 0.0 | 1.0 | 0.00 | 0.00 | 0.00 | 60 | 1019.6 |
| 20260502212357 | 57 | 148 | 0.0 | 1.0 | 0.00 | 0.00 | 0.00 | 60 | 1019.5 |
| 20260502212039 | 57 | 167 | 0.0 | 1.0 | 0.00 | 0.00 | 0.00 | 59 | 1019.6 |
| 20260502211937 | 57 | 152 | 0.0 | 1.0 | 0.00 | 0.00 | 0.00 | 58 | 1019.6 |
| 20260502211836 | 57 | 159 | 0.0 | 1.0 | 0.00 | 0.00 | 0.00 | 59 | 1019.5 |
| 20260502211736 | 57 | 148 | 0.0 | 1.0 | 0.00 | 0.00 | 0.00 | 58 | 1019.5 |
| 20260502211720 | 57 | 145 | 0.0 | 1.0 | 0.00 | 0.00 | 0.00 | 58 | 1019.5 |
| 20260502211637 | 57 | 145 | 0.0 | 1.0 | 0.00 | 0.00 | 0.00 | 59 | 1019.5 |
| 20260502211536 | 57 | 166 | 0.0 | 1.0 | 0.00 | 0.00 | 0.00 | 59 | 1019.6 |
| 20260502211436 | 57 | 168 | 0.0 | 1.0 | 0.00 | 0.00 | 0.00 | 59 | 1019.6 |
| 20260502211336 | 57 | 171 | 0.0 | 1.0 | 0.00 | 0.00 | 0.00 | 59 | 1019.6 |
| 20260502211310 | 57 | 168 | 0.0 | 1.0 | 0.00 | 0.00 | 0.00 | 60 | 1019.9 |
| 20260502211258 | 57 | 167 | 0.0 | 1.0 | 0.00 | 0.00 | 0.00 | 60 | 1019.9 |
| 20260502211246 | 57 | 170 | 0.0 | 1.0 | 0.00 | 0.00 | 0.00 | 60 | 1019.3 |
| 20260502211230 | 56 | 170 | 0.0 | 1.0 | 0.00 | 0.00 | 0.00 | 60 | 1019.5 |
| 20260502210955 | 57 | 167 | 0.0 | 2.0 | 0.00 | 0.00 | 0.00 | 61 | 1019.7 |
| 20260502210720 | 57 | 169 | 0.0 | 2.0 | 0.00 | 0.00 | 0.00 | 61 | 1019.7 |
| 20260502210634 | 57 | 170 | 0.0 | 2.0 | 0.00 | 0.00 | 0.00 | 61 | 1019.7 |
| 20260502210535 | 58 | 160 | 0.0 | 2.0 | 0.00 | 0.00 | 0.00 | 60 | 1019.6 |
| 20260502210435 | 58 | 156 | 0.0 | 2.0 | 0.00 | 0.00 | 0.00 | 59 | 1019.8 |
| 20260502210348 | 59 | 168 | 0.0 | 0.0 | 0.00 | 0.00 | 0.00 | 56 | 1019.8 |
| 20260502210342 | 58 | 156 | 0.0 | 2.0 | 0.00 | 0.00 | 0.00 | 58 | 1019.5 |
| 20260502210326 | 59 | 152 | 0.0 | 2.0 | 0.00 | 0.00 | 0.00 | 57 | 1019.5 |
| 20260502210314 | 59 | 152 | 0.0 | 2.0 | 0.00 | 0.00 | 0.00 | 57 | 1019.6 |
| 20260502210301 | 59 | 145 | 0.0 | 2.0 | 0.00 | 0.00 | 0.00 | 56 | 1019.7 |
| 20260502210245 | 59 | 128 | 1.0 | 1.0 | 0.00 | 0.00 | 0.00 | 56 | 1019.7 |
| 20260502210009 | 59 | 147 | 0.0 | 1.0 | 0.00 | 0.00 | 0.00 | 56 | 1019.8 |
| 20260502205735 | 59 | 157 | 0.0 | 1.0 | 0.00 | 0.00 | 0.00 | 56 | 1019.8 |
| 20260502205724 | 59 | 162 | 0.0 | 1.0 | 0.00 | 0.00 | 0.00 | 56 | 1019.6 |
| 20260502205708 | 59 | 155 | 0.0 | 1.0 | 0.00 | 0.00 | 0.00 | 56 | 1019.9 |
| 20260502205652 | 59 | 157 | 0.0 | 1.0 | 0.00 | 0.00 | 0.00 | 56 | 1019.6 |
| 20260502205637 | 59 | 157 | 0.0 | 0.0 | 0.00 | 0.00 | 0.00 | 56 | 1019.8 |
| 20260502205621 | 59 | 168 | 0.0 | 0.0 | 0.00 | 0.00 | 0.00 | 56 | 1019.8 |
| 20260502205133 | 59 | 174 | 0.0 | 0.0 | 0.00 | 0.00 | 0.00 | 56 | 1019.9 |
| 20260502204854 | 59 | 175 | 0.0 | 0.0 | 0.00 | 0.00 | 0.00 | 56 | 1019.9 |
| 20260502204832 | 58 | 174 | 0.0 | 0.0 | 0.00 | 0.00 | 0.00 | 56 | 1019.7 |
| 20260502204511 | 58 | 184 | 0.0 | 0.0 | 0.00 | 0.00 | 0.00 | 57 | 1019.9 |
| 20260502204410 | 58 | 182 | 0.0 | 0.0 | 0.00 | 0.00 | 0.00 | 57 | 1020.0 |
| 20260502204306 | 58 | 177 | 0.0 | 0.0 | 0.00 | 0.00 | 0.00 | 57 | 1019.7 |
| 20260502204205 | 58 | 177 | 0.0 | 0.0 | 0.00 | 0.00 | 0.00 | 57 | 1019.8 |
| 20260502204105 | 59 | 177 | 0.0 | 0.0 | 0.00 | 0.00 | 0.00 | 57 | 1019.8 |
| 20260502204018 | 59 | 175 | 0.0 | 0.0 | 0.00 | 0.00 | 0.00 | 57 | 1019.8 |
| 20260502204014 | 60 | 172 | 0.0 | 1.0 | 0.00 | 0.00 | 0.00 | 56 | 1020.0 |
| 20260502204009 | 61 | 144 | 0.0 | 2.0 | 0.00 | 0.00 | 0.00 | 55 | 1020.0 |
| 20260502204004 | 59 | 176 | 0.0 | 0.0 | 0.00 | 0.00 | 0.00 | 57 | 1019.9 |
| 20260502203949 | 59 | 176 | 0.0 | 0.0 | 0.00 | 0.00 | 0.00 | 57 | 1019.9 |
| 20260502203933 | 59 | 177 | 0.0 | 0.0 | 0.00 | 0.00 | 0.00 | 57 | 1019.8 |
| 20260502203911 | 59 | 177 | 0.0 | 0.0 | 0.00 | 0.00 | 0.00 | 57 | 1019.6 |
| 20260502203855 | 59 | 176 | 0.0 | 0.0 | 0.00 | 0.00 | 0.00 | 57 | 1019.8 |
| 20260502203620 | 59 | 177 | 0.0 | 0.0 | 0.00 | 0.00 | 0.00 | 56 | 1019.6 |
| 20260502203603 | 59 | 176 | 0.0 | 0.0 | 0.00 | 0.00 | 0.00 | 56 | 1019.8 |
| 20260502203541 | 59 | 178 | 0.0 | 0.0 | 0.00 | 0.00 | 0.00 | 56 | 1020.0 |
| 20260502203524 | 59 | 179 | 0.0 | 0.0 | 0.00 | 0.00 | 0.00 | 56 | 1019.7 |
| 20260502203247 | 59 | 179 | 0.0 | 0.0 | 0.00 | 0.00 | 0.00 | 57 | 1019.9 |
| 20260502203005 | 59 | 179 | 0.0 | 0.0 | 0.00 | 0.00 | 0.00 | 57 | 1019.7 |
| 20260502202950 | 59 | 179 | 0.0 | 0.0 | 0.00 | 0.00 | 0.00 | 57 | 1019.9 |
| 20260502202713 | 59 | 179 | 0.0 | 0.0 | 0.00 | 0.00 | 0.00 | 56 | 1019.8 |
| 20260502202657 | 59 | 176 | 0.0 | 0.0 | 0.00 | 0.00 | 0.00 | 56 | 1019.9 |
| 20260502202430 | 59 | 175 | 0.0 | 0.0 | 0.00 | 0.00 | 0.00 | 57 | 1019.8 |
| 20260502202412 | 59 | 174 | 0.0 | 1.0 | 0.00 | 0.00 | 0.00 | 56 | 1020.0 |
| 20260502202357 | 60 | 174 | 0.0 | 1.0 | 0.00 | 0.00 | 0.00 | 56 | 1020.1 |
| 20260502202121 | 60 | 173 | 0.0 | 1.0 | 0.00 | 0.00 | 0.00 | 56 | 1020.0 |
| 20260502201633 | 60 | 169 | 0.0 | 1.0 | 0.00 | 0.00 | 0.00 | 55 | 1019.8 |
| 20260502201618 | 60 | 166 | 0.0 | 1.0 | 0.00 | 0.00 | 0.00 | 55 | 1020.0 |
| 20260502201602 | 60 | 172 | 0.0 | 1.0 | 0.00 | 0.00 | 0.00 | 55 | 1020.0 |
| 20260502201546 | 60 | 174 | 0.0 | 1.0 | 0.00 | 0.00 | 0.00 | 55 | 1019.9 |
| 20260502201532 | 60 | 176 | 0.0 | 1.0 | 0.00 | 0.00 | 0.00 | 55 | 1019.9 |
| 20260502201302 | 60 | 171 | 0.0 | 1.0 | 0.00 | 0.00 | 0.00 | 55 | 1019.9 |
| 20260502201246 | 60 | 171 | 0.0 | 1.0 | 0.00 | 0.00 | 0.00 | 55 | 1019.7 |
| 20260502200751 | 60 | 159 | 0.0 | 1.0 | 0.00 | 0.00 | 0.00 | 55 | 1020.0 |
| 20260502200743 | 60 | 158 | 0.0 | 1.0 | 0.00 | 0.00 | 0.00 | 55 | 1020.1 |
| 20260502200727 | 60 | 158 | 0.0 | 2.0 | 0.00 | 0.00 | 0.00 | 55 | 1019.9 |
| 20260502200712 | 60 | 151 | 0.0 | 2.0 | 0.00 | 0.00 | 0.00 | 55 | 1019.9 |
| 20260502200655 | 61 | 154 | 0.0 | 2.0 | 0.00 | 0.00 | 0.00 | 55 | 1019.8 |
| 20260502200206 | 61 | 150 | 0.0 | 2.0 | 0.00 | 0.00 | 0.00 | 55 | 1019.8 |
| 20260502200150 | 61 | 144 | 1.0 | 2.0 | 0.00 | 0.00 | 0.00 | 55 | 1019.8 |
| 20260502195829 | 61 | 127 | 1.0 | 2.0 | 0.00 | 0.00 | 0.00 | 54 | 1019.7 |
| 20260502195730 | 61 | 110 | 1.0 | 2.0 | 0.00 | 0.00 | 0.00 | 54 | 1019.8 |
| 20260502195650 | 61 | 127 | 1.0 | 2.0 | 0.00 | 0.00 | 0.00 | 54 | 1019.8 |
| 20260502195629 | 61 | 89 | 2.0 | 2.0 | 0.00 | 0.00 | 0.00 | 54 | 1019.8 |
| 20260502195530 | 61 | 128 | 1.0 | 2.0 | 0.00 | 0.00 | 0.00 | 55 | 1019.9 |
| 20260502195427 | 61 | 127 | 1.0 | 2.0 | 0.00 | 0.00 | 0.00 | 55 | 1019.9 |
| 20260502195323 | 61 | 140 | 0.0 | 2.0 | 0.00 | 0.00 | 0.00 | 54 | 1020.0 |
| 20260502195223 | 61 | 102 | 1.0 | 2.0 | 0.00 | 0.00 | 0.00 | 54 | 1019.8 |
| 20260502195143 | 61 | 129 | 1.0 | 2.0 | 0.00 | 0.00 | 0.00 | 54 | 1019.8 |
| 20260502195125 | 61 | 145 | 1.0 | 1.0 | 0.00 | 0.00 | 0.00 | 54 | 1019.7 |
| 20260502195022 | 61 | 127 | 1.0 | 1.0 | 0.00 | 0.00 | 0.00 | 54 | 1019.9 |
| 20260502194922 | 62 | 153 | 0.0 | 1.0 | 0.00 | 0.00 | 0.00 | 54 | 1019.9 |
| 20260502194822 | 62 | 104 | 1.0 | 1.0 | 0.00 | 0.00 | 0.00 | 54 | 1019.9 |
| 20260502194722 | 62 | 153 | 0.0 | 1.0 | 0.00 | 0.00 | 0.00 | 54 | 1020.1 |
| 20260502194638 | 62 | 154 | 0.0 | 1.0 | 0.00 | 0.00 | 0.00 | 54 | 1020.1 |
| 20260502194619 | 62 | 154 | 0.0 | 1.0 | 0.00 | 0.00 | 0.00 | 54 | 1019.9 |
| 20260502194518 | 62 | 142 | 0.0 | 1.0 | 0.00 | 0.00 | 0.00 | 53 | 1019.8 |
| 20260502194419 | 62 | 157 | 0.0 | 1.0 | 0.00 | 0.00 | 0.00 | 53 | 1020.0 |
| 20260502194359 | 62 | 163 | 0.0 | 1.0 | 0.00 | 0.00 | 0.00 | 53 | 1020.0 |
| 20260502194342 | 62 | 167 | 0.0 | 2.0 | 0.00 | 0.00 | 0.00 | 53 | 1020.1 |
| 20260502194328 | 62 | 167 | 0.0 | 2.0 | 0.00 | 0.00 | 0.00 | 53 | 1020.1 |
| 20260502194013 | 62 | 154 | 0.0 | 2.0 | 0.00 | 0.00 | 0.00 | 53 | 1019.9 |
| 20260502193917 | 62 | 150 | 0.0 | 2.0 | 0.00 | 0.00 | 0.00 | 53 | 1019.9 |
| 20260502193900 | 62 | 147 | 0.0 | 2.0 | 0.00 | 0.00 | 0.00 | 53 | 1019.9 |
| 20260502193845 | 62 | 155 | 0.0 | 2.0 | 0.00 | 0.00 | 0.00 | 53 | 1020.0 |
| 20260502193830 | 62 | 164 | 0.0 | 2.0 | 0.00 | 0.00 | 0.00 | 53 | 1019.9 |
| 20260502193507 | 62 | 143 | 0.0 | 2.0 | 0.00 | 0.00 | 0.00 | 53 | 1020.0 |
| 20260502193405 | 62 | 139 | 1.0 | 2.0 | 0.00 | 0.00 | 0.00 | 53 | 1020.0 |
| 20260502193306 | 62 | 159 | 0.0 | 2.0 | 0.00 | 0.00 | 0.00 | 52 | 1020.0 |
| 20260502193205 | 62 | 142 | 1.0 | 1.0 | 0.00 | 0.00 | 0.00 | 53 | 1019.8 |
| 20260502193125 | 62 | 112 | 0.0 | 1.0 | 0.00 | 0.00 | 0.00 | 53 | 1020.0 |
| 20260502193105 | 62 | 155 | 0.0 | 1.0 | 0.00 | 0.00 | 0.00 | 52 | 1020.0 |
| 20260502193005 | 62 | 130 | 0.0 | 2.0 | 0.00 | 0.00 | 0.00 | 52 | 1020.0 |
| 20260502192905 | 62 | 154 | 0.0 | 2.0 | 0.00 | 0.00 | 0.00 | 53 | 1019.9 |
| 20260502192806 | 62 | 153 | 0.0 | 2.0 | 0.00 | 0.00 | 0.00 | 52 | 1019.9 |
| 20260502192706 | 63 | 146 | 0.0 | 2.0 | 0.00 | 0.00 | 0.00 | 52 | 1019.9 |
| 20260502192625 | 63 | 152 | 0.0 | 2.0 | 0.00 | 0.00 | 0.00 | 52 | 1019.9 |
| 20260502192606 | 63 | 152 | 0.0 | 2.0 | 0.00 | 0.00 | 0.00 | 52 | 1019.9 |
| 20260502192506 | 63 | 157 | 0.0 | 2.0 | 0.00 | 0.00 | 0.00 | 52 | 1020.0 |
| 20260502192404 | 63 | 148 | 1.0 | 2.0 | 0.00 | 0.00 | 0.00 | 52 | 1020.1 |
| 20260502192305 | 63 | 155 | 0.0 | 2.0 | 0.00 | 0.00 | 0.00 | 52 | 1020.1 |
| 20260502192205 | 63 | 116 | 0.0 | 2.0 | 0.00 | 0.00 | 0.00 | 52 | 1020.1 |
| 20260502192124 | 63 | 142 | 1.0 | 2.0 | 0.00 | 0.00 | 0.00 | 51 | 1020.1 |
| 20260502192106 | 63 | 136 | 0.0 | 2.0 | 0.00 | 0.00 | 0.00 | 51 | 1020.1 |
| 20260502192005 | 63 | 90 | 1.0 | 2.0 | 0.00 | 0.00 | 0.00 | 52 | 1020.0 |
| 20260502191905 | 63 | 146 | 1.0 | 2.0 | 0.00 | 0.00 | 0.00 | 51 | 1020.1 |
| 20260502191805 | 63 | 131 | 1.0 | 2.0 | 0.00 | 0.00 | 0.00 | 51 | 1020.0 |
| 20260502191706 | 63 | 157 | 0.0 | 2.0 | 0.00 | 0.00 | 0.00 | 51 | 1019.9 |
| 20260502191624 | 63 | 161 | 0.0 | 3.0 | 0.00 | 0.00 | 0.00 | 51 | 1019.9 |
| 20260502191604 | 63 | 156 | 0.0 | 3.0 | 0.00 | 0.00 | 0.00 | 51 | 1020.0 |
| 20260502191504 | 63 | 141 | 0.0 | 3.0 | 0.00 | 0.00 | 0.00 | 51 | 1020.2 |
| 20260502191405 | 63 | 148 | 0.0 | 3.0 | 0.00 | 0.00 | 0.00 | 51 | 1020.0 |
| 20260502191304 | 63 | 160 | 0.0 | 3.0 | 0.00 | 0.00 | 0.00 | 51 | 1020.1 |
| 20260502191205 | 63 | 135 | 1.0 | 3.0 | 0.00 | 0.00 | 0.00 | 51 | 1020.1 |
| 20260502191124 | 64 | 87 | 1.0 | 3.0 | 0.00 | 0.00 | 0.00 | 51 | 1019.9 |
| 20260502191104 | 64 | 125 | 1.0 | 3.0 | 0.00 | 0.00 | 0.00 | 51 | 1019.9 |
| 20260502191041 | 64 | 157 | 0.0 | 3.0 | 0.00 | 0.00 | 0.00 | 50 | 1020.1 |
| 20260502191025 | 64 | 133 | 1.0 | 3.0 | 0.00 | 0.00 | 0.00 | 50 | 1020.4 |
| 20260502190704 | 64 | 95 | 2.0 | 3.0 | 0.00 | 0.00 | 0.00 | 50 | 1020.2 |
| 20260502190625 | 64 | 169 | 0.0 | 1.0 | 0.00 | 0.00 | 0.00 | 51 | 1020.0 |
| 20260502190605 | 64 | 169 | 0.0 | 1.0 | 0.00 | 0.00 | 0.00 | 50 | 1020.0 |
| 20260502190504 | 64 | 151 | 0.0 | 1.0 | 0.00 | 0.00 | 0.00 | 50 | 1020.2 |
| 20260502190406 | 64 | 146 | 0.0 | 1.0 | 0.00 | 0.00 | 0.00 | 50 | 1020.2 |
| 20260502190304 | 64 | 161 | 0.0 | 1.0 | 0.00 | 0.00 | 0.00 | 50 | 1020.0 |
| 20260502190159 | 64 | 177 | 0.0 | 1.0 | 0.00 | 0.00 | 0.00 | 50 | 1020.1 |
| 20260502190120 | 64 | 159 | 0.0 | 1.0 | 0.00 | 0.00 | 0.00 | 50 | 1020.2 |
| 20260502190059 | 64 | 172 | 0.0 | 1.0 | 0.00 | 0.00 | 0.00 | 50 | 1020.2 |
| 20260502190033 | 64 | 180 | 0.0 | 1.0 | 0.00 | 0.00 | 0.00 | 50 | 1020.1 |
| 20260502190017 | 64 | 173 | 0.0 | 1.0 | 0.00 | 0.00 | 0.00 | 50 | 1020.1 |
| 20260502185658 | 64 | 151 | 0.0 | 2.0 | 0.00 | 0.00 | 0.00 | 50 | 1020.0 |
| 20260502185641 | 64 | 172 | 0.0 | 2.0 | 0.00 | 0.00 | 0.00 | 50 | 1020.3 |
| 20260502185634 | 64 | 163 | 0.0 | 3.0 | 0.00 | 0.00 | 0.00 | 50 | 1020.3 |
| 20260502185618 | 64 | 175 | 0.0 | 3.0 | 0.00 | 0.00 | 0.00 | 50 | 1020.1 |
| 20260502185258 | 64 | 161 | 0.0 | 3.0 | 0.00 | 0.00 | 0.00 | 49 | 1019.9 |
| 20260502185159 | 64 | 165 | 0.0 | 3.0 | 0.00 | 0.00 | 0.00 | 49 | 1020.0 |
| 20260502185144 | 64 | 169 | 0.0 | 3.0 | 0.00 | 0.00 | 0.00 | 49 | 1020.0 |
| 20260502185135 | 64 | 170 | 0.0 | 3.0 | 0.00 | 0.00 | 0.00 | 49 | 1020.0 |
| 20260502185119 | 64 | 175 | 0.0 | 3.0 | 0.00 | 0.00 | 0.00 | 49 | 1020.0 |
| 20260502184759 | 65 | 90 | 0.0 | 4.0 | 0.00 | 0.00 | 0.00 | 49 | 1020.1 |
| 20260502184729 | 65 | 131 | 1.0 | 4.0 | 0.00 | 0.00 | 0.00 | 48 | 1019.8 |
| 20260502184723 | 65 | 117 | 1.0 | 3.0 | 0.00 | 0.00 | 0.00 | 49 | 1019.7 |
| 20260502184716 | 65 | 185 | 1.0 | 4.0 | 0.00 | 0.00 | 0.00 | 49 | 1020.0 |
| 20260502184701 | 65 | 165 | 1.0 | 4.0 | 0.00 | 0.00 | 0.00 | 49 | 1020.1 |
| 20260502184653 | 65 | 140 | 1.0 | 4.0 | 0.00 | 0.00 | 0.00 | 49 | 1020.1 |
| 20260502184637 | 65 | 198 | 0.0 | 4.0 | 0.00 | 0.00 | 0.00 | 49 | 1019.8 |
| 20260502184402 | 65 | 104 | 1.0 | 4.0 | 0.00 | 0.00 | 0.00 | 48 | 1019.9 |
| 20260502184346 | 65 | 187 | 1.0 | 4.0 | 0.00 | 0.00 | 0.00 | 49 | 1019.9 |
| 20260502184333 | 65 | 151 | 0.0 | 4.0 | 0.00 | 0.00 | 0.00 | 49 | 1019.8 |
| 20260502184100 | 65 | 81 | 3.0 | 4.0 | 0.00 | 0.00 | 0.00 | 49 | 1019.9 |
| 20260502184043 | 65 | 167 | 0.0 | 3.0 | 0.00 | 0.00 | 0.00 | 49 | 1020.1 |
| 20260502184028 | 65 | 123 | 1.0 | 3.0 | 0.00 | 0.00 | 0.00 | 49 | 1020.2 |
| 20260502184011 | 65 | 185 | 1.0 | 3.0 | 0.00 | 0.00 | 0.00 | 49 | 1019.8 |
| 20260502183959 | 65 | 164 | 0.0 | 2.0 | 0.00 | 0.00 | 0.00 | 49 | 1019.8 |
| 20260502183948 | 65 | 175 | 0.0 | 2.0 | 0.00 | 0.00 | 0.00 | 49 | 1020.0 |
| 20260502183933 | 65 | 131 | 1.0 | 3.0 | 0.00 | 0.00 | 0.00 | 49 | 1019.8 |
| 20260502183917 | 65 | 134 | 0.0 | 3.0 | 0.00 | 0.00 | 0.00 | 49 | 1019.8 |
| 20260502183629 | 65 | 144 | 1.0 | 4.0 | 0.00 | 0.00 | 0.00 | 49 | 1019.8 |
| 20260502183617 | 65 | 112 | 0.0 | 4.0 | 0.00 | 0.00 | 0.00 | 48 | 1019.8 |
| 20260502183600 | 65 | 77 | 2.0 | 4.0 | 0.00 | 0.00 | 0.00 | 49 | 1020.0 |
| 20260502183545 | 65 | 172 | 0.0 | 4.0 | 0.00 | 0.00 | 0.00 | 49 | 1020.0 |
| 20260502183528 | 65 | 99 | 0.0 | 4.0 | 0.00 | 0.00 | 0.00 | 49 | 1019.8 |
| 20260502183042 | 65 | 107 | 2.0 | 4.0 | 0.00 | 0.00 | 0.00 | 48 | 1020.0 |
| 20260502182804 | 65 | 126 | 1.0 | 4.0 | 0.00 | 0.00 | 0.00 | 49 | 1019.7 |
| 20260502182748 | 65 | 53 | 2.0 | 4.0 | 0.00 | 0.00 | 0.00 | 48 | 1019.8 |
| 20260502182242 | 66 | 118 | 2.0 | 3.0 | 0.00 | 0.00 | 0.00 | 49 | 1019.6 |
| 20260502182225 | 66 | 122 | 2.0 | 3.0 | 0.00 | 0.00 | 0.00 | 49 | 1019.7 |
| 20260502181737 | 66 | 120 | 1.0 | 4.0 | 0.00 | 0.00 | 0.00 | 49 | 1019.9 |
| 20260502181507 | 67 | 99 | 1.0 | 6.0 | 0.00 | 0.00 | 0.00 | 47 | 1019.6 |
| 20260502181458 | 66 | 101 | 1.0 | 7.0 | 0.00 | 0.00 | 0.00 | 49 | 1019.7 |
| 20260502181442 | 66 | 92 | 2.0 | 7.0 | 0.00 | 0.00 | 0.00 | 49 | 1019.8 |
| 20260502181427 | 66 | 46 | 2.0 | 7.0 | 0.00 | 0.00 | 0.00 | 49 | 1019.7 |
| 20260502181358 | 66 | 65 | 2.0 | 7.0 | 0.00 | 0.00 | 0.00 | 48 | 1019.7 |
| 20260502181118 | 66 | 132 | 1.0 | 7.0 | 0.00 | 0.00 | 0.00 | 48 | 1019.6 |
| 20260502181103 | 67 | 68 | 3.0 | 7.0 | 0.00 | 0.00 | 0.00 | 48 | 1019.8 |
| 20260502181046 | 67 | 65 | 2.0 | 7.0 | 0.00 | 0.00 | 0.00 | 48 | 1019.6 |
| 20260502181024 | 67 | 74 | 2.0 | 7.0 | 0.00 | 0.00 | 0.00 | 48 | 1019.8 |
| 20260502181009 | 67 | 112 | 1.0 | 7.0 | 0.00 | 0.00 | 0.00 | 48 | 1019.7 |
| 20260502180733 | 67 | 139 | 2.0 | 6.0 | 0.00 | 0.00 | 0.00 | 48 | 1019.7 |
| 20260502180717 | 67 | 85 | 1.0 | 6.0 | 0.00 | 0.00 | 0.00 | 48 | 1019.6 |
| 20260502180449 | 67 | 136 | 1.0 | 6.0 | 0.00 | 0.00 | 0.00 | 48 | 1019.7 |
| 20260502180433 | 67 | 70 | 2.0 | 6.0 | 0.00 | 0.00 | 0.00 | 48 | 1019.7 |
| 20260502180157 | 67 | 146 | 0.0 | 6.0 | 0.00 | 0.00 | 0.00 | 48 | 1019.6 |
| 20260502180142 | 67 | 65 | 2.0 | 6.0 | 0.00 | 0.00 | 0.00 | 48 | 1019.7 |
| 20260502170459 | 70 | 94 | 0.0 | 3.0 | 0.00 | 0.00 | 0.00 | 39 | 1019.6 |
| 20260502170358 | 70 | 57 | 1.0 | 3.0 | 0.00 | 0.00 | 0.00 | 39 | 1019.7 |
| 20260502170300 | 70 | 67 | 2.0 | 4.0 | 0.00 | 0.00 | 0.00 | 39 | 1019.8 |
| 20260502170158 | 70 | 63 | 1.0 | 4.0 | 0.00 | 0.00 | 0.00 | 39 | 1019.7 |
| 20260502170106 | 70 | 111 | 1.0 | 4.0 | 0.00 | 0.00 | 0.00 | 39 | 1019.4 |
| 20260502164306 | 71 | 149 | 0.0 | 7.0 | 0.00 | 0.00 | 0.00 | 39 | 1019.7 |
| 20260502164257 | 71 | 120 | 0.0 | 7.0 | 0.00 | 0.00 | 0.00 | 39 | 1019.7 |
| 20260502164156 | 71 | 80 | 1.0 | 7.0 | 0.00 | 0.00 | 0.00 | 38 | 1019.9 |
| 20260502164056 | 71 | 66 | 1.0 | 7.0 | 0.00 | 0.00 | 0.00 | 38 | 1019.7 |
| 20260502163956 | 71 | 78 | 2.0 | 7.0 | 0.00 | 0.00 | 0.00 | 38 | 1019.5 |
| 20260502163855 | 71 | 52 | 2.0 | 7.0 | 0.00 | 0.00 | 0.00 | 38 | 1019.8 |
| 20260502163802 | 71 | 78 | 3.0 | 7.0 | 0.00 | 0.00 | 0.00 | 38 | 1019.8 |
| 20260502163754 | 71 | 46 | 2.0 | 7.0 | 0.00 | 0.00 | 0.00 | 38 | 1019.8 |
| 20260502163648 | 71 | 49 | 6.0 | 7.0 | 0.00 | 0.00 | 0.00 | 38 | 1019.6 |
| 20260502163554 | 71 | 121 | 1.0 | 6.0 | 0.00 | 0.00 | 0.00 | 38 | 1019.7 |
| 20260502163548 | 71 | 50 | 2.0 | 6.0 | 0.00 | 0.00 | 0.00 | 38 | 1019.7 |
| 20260502163532 | 71 | 57 | 2.0 | 6.0 | 0.00 | 0.00 | 0.00 | 38 | 1019.6 |
| 20260502163517 | 71 | 48 | 0.0 | 6.0 | 0.00 | 0.00 | 0.00 | 38 | 1019.7 |
| 20260502163236 | 71 | 88 | 0.0 | 6.0 | 0.00 | 0.00 | 0.00 | 37 | 1019.9 |
| 20260502163202 | 71 | 58 | 2.0 | 2.0 | 0.00 | 0.00 | 0.00 | 37 | 1019.6 |
| 20260502163155 | 71 | 143 | 0.0 | 6.0 | 0.00 | 0.00 | 0.00 | 37 | 1019.5 |
| 20260502163140 | 71 | 136 | 2.0 | 6.0 | 0.00 | 0.00 | 0.00 | 37 | 1019.5 |
| 20260502163124 | 71 | 68 | 4.0 | 6.0 | 0.00 | 0.00 | 0.00 | 37 | 1019.7 |
| 20260502163108 | 71 | 57 | 3.0 | 3.0 | 0.00 | 0.00 | 0.00 | 37 | 1019.6 |
| 20260502162841 | 71 | 131 | 1.0 | 2.0 | 0.00 | 0.00 | 0.00 | 36 | 1019.8 |
| 20260502162825 | 71 | 123 | 1.0 | 1.0 | 0.00 | 0.00 | 0.00 | 36 | 1019.7 |
| 20260502162550 | 71 | 171 | 0.0 | 1.0 | 0.00 | 0.00 | 0.00 | 35 | 1019.9 |
| 20260502162250 | 71 | 173 | 0.0 | 1.0 | 0.00 | 0.00 | 0.00 | 35 | 1019.9 |
| 20260502162231 | 71 | 174 | 0.0 | 2.0 | 0.00 | 0.00 | 0.00 | 35 | 1020.0 |
| 20260502162130 | 71 | 174 | 0.0 | 4.0 | 0.00 | 0.00 | 0.00 | 35 | 1019.8 |
| 20260502162030 | 71 | 124 | 0.0 | 4.0 | 0.00 | 0.00 | 0.00 | 35 | 1020.0 |
| 20260502161927 | 71 | 150 | 0.0 | 4.0 | 0.00 | 0.00 | 0.00 | 35 | 1020.0 |
| 20260502161817 | 71 | 142 | 0.0 | 4.0 | 0.00 | 0.00 | 0.00 | 35 | 1019.9 |
| 20260502161749 | 71 | 159 | 0.0 | 4.0 | 0.00 | 0.00 | 0.00 | 35 | 1019.9 |
| 20260502161717 | 71 | 153 | 0.0 | 4.0 | 0.00 | 0.00 | 0.00 | 33 | 1020.0 |
| 20260502161617 | 71 | 180 | 0.0 | 4.0 | 0.00 | 0.00 | 0.00 | 35 | 1019.8 |
| 20260502161552 | 71 | 185 | 2.0 | 4.0 | 0.00 | 0.00 | 0.00 | 35 | 1020.0 |
| 20260502161544 | 71 | 141 | 0.0 | 4.0 | 0.00 | 0.00 | 0.00 | 33 | 1019.8 |
| 20260502161528 | 71 | 182 | 0.0 | 4.0 | 0.00 | 0.00 | 0.00 | 35 | 1019.9 |
| 20260502161512 | 71 | 174 | 0.0 | 4.0 | 0.00 | 0.00 | 0.00 | 36 | 1020.0 |
| 20260502161216 | 71 | 172 | 0.0 | 3.0 | 0.00 | 0.00 | 0.00 | 35 | 1020.0 |
| 20260502161119 | 71 | 97 | 2.0 | 3.0 | 0.00 | 0.00 | 0.00 | 35 | 1020.0 |
| 20260502161017 | 71 | 73 | 1.0 | 3.0 | 0.00 | 0.00 | 0.00 | 35 | 1020.0 |
| 20260502161000 | 71 | 164 | 0.0 | 3.0 | 0.00 | 0.00 | 0.00 | 35 | 1019.9 |
| 20260502160945 | 71 | 129 | 1.0 | 3.0 | 0.00 | 0.00 | 0.00 | 35 | 1020.1 |
| 20260502160932 | 71 | 44 | 1.0 | 3.0 | 0.00 | 0.00 | 0.00 | 35 | 1020.1 |
| 20260502160617 | 71 | 164 | 0.0 | 3.0 | 0.00 | 0.00 | 0.00 | 35 | 1020.2 |
| 20260502160552 | 71 | 160 | 1.0 | 3.0 | 0.00 | 0.00 | 0.00 | 35 | 1020.1 |
| 20260502160536 | 71 | 196 | 1.0 | 3.0 | 0.00 | 0.00 | 0.00 | 35 | 1020.0 |
| 20260502160249 | 71 | 153 | 0.0 | 3.0 | 0.00 | 0.00 | 0.00 | 35 | 1020.0 |
| 20260502160216 | 71 | 57 | 2.0 | 3.0 | 0.00 | 0.00 | 0.00 | 35 | 1019.8 |
| 20260502160117 | 71 | 61 | 3.0 | 3.0 | 0.00 | 0.00 | 0.00 | 35 | 1019.9 |
| 20260502152318 | 72 | 130 | 0.0 | 6.0 | 0.00 | 0.00 | 0.00 | 35 | 1020.4 |
| 20260502152249 | 72 | 135 | 0.0 | 6.0 | 0.00 | 0.00 | 0.00 | 35 | 1020.4 |
| 20260502152217 | 72 | 123 | 0.0 | 6.0 | 0.00 | 0.00 | 0.00 | 35 | 1020.3 |
| 20260502152117 | 72 | 131 | 0.0 | 6.0 | 0.00 | 0.00 | 0.00 | 35 | 1020.5 |
| 20260502152017 | 72 | 174 | 0.0 | 6.0 | 0.00 | 0.00 | 0.00 | 35 | 1020.5 |
| 20260502151918 | 72 | 184 | 0.0 | 6.0 | 0.00 | 0.00 | 0.00 | 35 | 1020.2 |
| 20260502151818 | 72 | 224 | 0.0 | 6.0 | 0.00 | 0.00 | 0.00 | 35 | 1020.5 |
| 20260502151749 | 72 | 215 | 0.0 | 6.0 | 0.00 | 0.00 | 0.00 | 35 | 1020.5 |
| 20260502151718 | 72 | 189 | 0.0 | 6.0 | 0.00 | 0.00 | 0.00 | 35 | 1020.5 |
| 20260502151616 | 72 | 182 | 0.0 | 6.0 | 0.00 | 0.00 | 0.00 | 35 | 1020.5 |
| 20260502151518 | 72 | 189 | 2.0 | 6.0 | 0.00 | 0.00 | 0.00 | 36 | 1020.4 |
| 20260502151502 | 72 | 158 | 1.0 | 4.0 | 0.00 | 0.00 | 0.00 | 35 | 1020.5 |
| 20260502151447 | 72 | 158 | 0.0 | 4.0 | 0.00 | 0.00 | 0.00 | 35 | 1020.5 |
| 20260502151432 | 72 | 153 | 0.0 | 4.0 | 0.00 | 0.00 | 0.00 | 36 | 1020.5 |
| 20260502151151 | 72 | 125 | 1.0 | 4.0 | 0.00 | 0.00 | 0.00 | 35 | 1020.5 |
| 20260502151135 | 72 | 90 | 2.0 | 4.0 | 0.00 | 0.00 | 0.00 | 35 | 1020.3 |
| 20260502151119 | 72 | 113 | 0.0 | 4.0 | 0.00 | 0.00 | 0.00 | 35 | 1020.6 |
| 20260502151104 | 71 | 155 | 0.0 | 4.0 | 0.00 | 0.00 | 0.00 | 36 | 1020.4 |
| 20260502151050 | 71 | 80 | 1.0 | 4.0 | 0.00 | 0.00 | 0.00 | 35 | 1020.4 |
| 20260502150517 | 72 | 65 | 2.0 | 4.0 | 0.00 | 0.00 | 0.00 | 35 | 1020.3 |
| 20260502150418 | 72 | 168 | 0.0 | 4.0 | 0.00 | 0.00 | 0.00 | 36 | 1020.7 |
| 20260502150319 | 72 | 62 | 4.0 | 4.0 | 0.00 | 0.00 | 0.00 | 35 | 1020.4 |
| 20260502150249 | 72 | 65 | 3.0 | 4.0 | 0.00 | 0.00 | 0.00 | 35 | 1020.4 |
| 20260502150217 | 72 | 54 | 1.0 | 4.0 | 0.00 | 0.00 | 0.00 | 35 | 1020.4 |
| 20260502150118 | 72 | 154 | 0.0 | 4.0 | 0.00 | 0.00 | 0.00 | 36 | 1020.4 |
| 20260502140113 | 72 | 133 | 0.0 | 3.0 | 0.00 | 0.00 | 0.00 | 35 | 1020.9 |
| 20260502130749 | 72 | 58 | 2.0 | 6.0 | 0.00 | 0.00 | 0.00 | 36 | 1021.4 |
| 20260502130733 | 72 | 58 | 2.0 | 6.0 | 0.00 | 0.00 | 0.00 | 35 | 1021.5 |
| 20260502130651 | 72 | 44 | 0.0 | 6.0 | 0.00 | 0.00 | 0.00 | 36 | 1021.5 |
| 20260502130550 | 71 | 72 | 1.0 | 6.0 | 0.00 | 0.00 | 0.00 | 37 | 1021.2 |
| 20260502130449 | 72 | 45 | 2.0 | 6.0 | 0.00 | 0.00 | 0.00 | 36 | 1021.5 |
| 20260502130349 | 72 | 50 | 2.0 | 6.0 | 0.00 | 0.00 | 0.00 | 36 | 1021.7 |
| 20260502130249 | 72 | 64 | 4.0 | 6.0 | 0.00 | 0.00 | 0.00 | 36 | 1021.5 |
| 20260502130234 | 72 | 64 | 4.0 | 6.0 | 0.00 | 0.00 | 0.00 | 36 | 1021.6 |
| 20260502130148 | 72 | 122 | 0.0 | 6.0 | 0.00 | 0.00 | 0.00 | 36 | 1021.6 |
| 20260502123711 | 71 | 66 | 2.0 | 8.0 | 0.00 | 0.00 | 0.00 | 37 | 1021.9 |
| 20260502123611 | 71 | 142 | 0.0 | 8.0 | 0.00 | 0.00 | 0.00 | 40 | 1021.7 |
| 20260502123514 | 71 | 84 | 0.0 | 8.0 | 0.00 | 0.00 | 0.00 | 39 | 1021.8 |
| 20260502123504 | 71 | 50 | 4.0 | 8.0 | 0.00 | 0.00 | 0.00 | 38 | 1022.1 |
| 20260502123454 | 71 | 75 | 1.0 | 8.0 | 0.00 | 0.00 | 0.00 | 39 | 1021.9 |
| 20260502123437 | 71 | 56 | 3.0 | 8.0 | 0.00 | 0.00 | 0.00 | 38 | 1021.8 |
| 20260502123207 | 71 | 56 | 6.0 | 8.0 | 0.00 | 0.00 | 0.00 | 38 | 1022.1 |
| 20260502123107 | 71 | 46 | 1.0 | 6.0 | 0.00 | 0.00 | 0.00 | 40 | 1021.9 |
| 20260502123006 | 71 | 78 | 1.0 | 6.0 | 0.00 | 0.00 | 0.00 | 39 | 1021.9 |
| 20260502122948 | 71 | 69 | 2.0 | 6.0 | 0.00 | 0.00 | 0.00 | 39 | 1021.8 |
| 20260502122933 | 71 | 156 | 2.0 | 6.0 | 0.00 | 0.00 | 0.00 | 39 | 1022.0 |
| 20260502122917 | 71 | 41 | 3.0 | 6.0 | 0.00 | 0.00 | 0.00 | 39 | 1022.2 |
| 20260502122606 | 71 | 48 | 2.0 | 6.0 | 0.00 | 0.00 | 0.00 | 39 | 1022.2 |
| 20260502122506 | 71 | 62 | 4.0 | 6.0 | 0.00 | 0.00 | 0.00 | 39 | 1022.0 |
| 20260502122407 | 71 | 83 | 2.0 | 6.0 | 0.00 | 0.00 | 0.00 | 38 | 1022.1 |
| 20260502122307 | 71 | 65 | 4.0 | 6.0 | 0.00 | 0.00 | 0.00 | 38 | 1022.0 |
| 20260502122215 | 71 | 89 | 0.0 | 6.0 | 0.00 | 0.00 | 0.00 | 39 | 1022.3 |
| 20260502122206 | 71 | 72 | 1.0 | 6.0 | 0.00 | 0.00 | 0.00 | 39 | 1022.3 |
| 20260502122106 | 71 | 57 | 1.0 | 6.0 | 0.00 | 0.00 | 0.00 | 39 | 1022.0 |
| 20260502122005 | 71 | 100 | 3.0 | 6.0 | 0.00 | 0.00 | 0.00 | 38 | 1022.1 |
| 20260502121906 | 71 | 49 | 3.0 | 6.0 | 0.00 | 0.00 | 0.00 | 38 | 1022.0 |
| 20260502121807 | 72 | 190 | 1.0 | 6.0 | 0.00 | 0.00 | 0.00 | 38 | 1022.1 |
| 20260502121714 | 72 | 139 | 0.0 | 6.0 | 0.00 | 0.00 | 0.00 | 38 | 1022.3 |
| 20260502121706 | 72 | 67 | 1.0 | 6.0 | 0.00 | 0.00 | 0.00 | 38 | 1022.3 |
| 20260502121606 | 71 | 70 | 2.0 | 6.0 | 0.00 | 0.00 | 0.00 | 39 | 1022.3 |
| 20260502121507 | 71 | 64 | 2.0 | 6.0 | 0.00 | 0.00 | 0.00 | 40 | 1022.1 |
| 20260502121408 | 71 | 47 | 1.0 | 6.0 | 0.00 | 0.00 | 0.00 | 39 | 1022.1 |
| 20260502121351 | 71 | 64 | 0.0 | 4.0 | 0.00 | 0.00 | 0.00 | 39 | 1022.2 |
| 20260502121332 | 71 | 56 | 1.0 | 4.0 | 0.00 | 0.00 | 0.00 | 40 | 1022.1 |
| 20260502121325 | 71 | 172 | 0.0 | 4.0 | 0.00 | 0.00 | 0.00 | 39 | 1022.1 |
| 20260502121006 | 71 | 97 | 2.0 | 4.0 | 0.00 | 0.00 | 0.00 | 39 | 1022.1 |
| 20260502120914 | 72 | 77 | 1.0 | 4.0 | 0.00 | 0.00 | 0.00 | 38 | 1022.3 |
| 20260502120900 | 73 | 80 | 1.0 | 4.0 | 0.00 | 0.00 | 0.00 | 38 | 1022.3 |
| 20260502120845 | 73 | 191 | 0.0 | 4.0 | 0.00 | 0.00 | 0.00 | 38 | 1022.3 |
| 20260502120839 | 73 | 191 | 0.0 | 4.0 | 0.00 | 0.00 | 0.00 | 38 | 1022.3 |
| 20260502120823 | 72 | 195 | 0.0 | 4.0 | 0.00 | 0.00 | 0.00 | 39 | 1022.3 |
| 20260502120546 | 71 | 283 | 0.0 | 4.0 | 0.00 | 0.00 | 0.00 | 40 | 1022.2 |
| 20260502120531 | 71 | 203 | 0.0 | 6.0 | 0.00 | 0.00 | 0.00 | 39 | 1022.2 |
| 20260502120512 | 70 | 193 | 2.0 | 6.0 | 0.00 | 0.00 | 0.00 | 39 | 1022.3 |
| 20260502120504 | 70 | 193 | 2.0 | 6.0 | 0.00 | 0.00 | 0.00 | 39 | 1022.3 |
| 20260502115709 | 71 | 53 | 1.0 | 7.0 | 0.00 | 0.00 | 0.00 | 40 | 1022.5 |
| 20260502115647 | 71 | 70 | 2.0 | 7.0 | 0.00 | 0.00 | 0.00 | 40 | 1022.5 |
| 20260502115547 | 71 | 69 | 3.0 | 7.0 | 0.00 | 0.00 | 0.00 | 40 | 1022.4 |
| 20260502115447 | 71 | 58 | 2.0 | 7.0 | 0.00 | 0.00 | 0.00 | 39 | 1022.4 |
| 20260502115348 | 71 | 74 | 1.0 | 7.0 | 0.00 | 0.00 | 0.00 | 40 | 1022.3 |
| 20260502115248 | 71 | 142 | 0.0 | 7.0 | 0.00 | 0.00 | 0.00 | 40 | 1022.2 |
| 20260502115208 | 71 | 46 | 2.0 | 7.0 | 0.00 | 0.00 | 0.00 | 40 | 1022.3 |
| 20260502115148 | 71 | 37 | 4.0 | 4.0 | 0.00 | 0.00 | 0.00 | 40 | 1022.3 |
| 20260502115128 | 70 | 184 | 2.0 | 8.0 | 0.00 | 0.00 | 0.00 | 42 | 1022.6 |
| 20260502115119 | 71 | 105 | 0.0 | 4.0 | 0.00 | 0.00 | 0.00 | 42 | 1022.4 |
| 20260502115103 | 71 | 63 | 1.0 | 9.0 | 0.00 | 0.00 | 0.00 | 42 | 1022.4 |
| 20260502114827 | 72 | 182 | 0.0 | 9.0 | 0.00 | 0.00 | 0.00 | 40 | 1022.4 |
| 20260502114812 | 72 | 192 | 0.0 | 9.0 | 0.00 | 0.00 | 0.00 | 40 | 1022.4 |
| 20260502114804 | 72 | 200 | 0.0 | 9.0 | 0.00 | 0.00 | 0.00 | 40 | 1022.4 |
| 20260502114529 | 70 | 200 | 0.0 | 9.0 | 0.00 | 0.00 | 0.00 | 42 | 1022.4 |
| 20260502114513 | 70 | 174 | 0.0 | 9.0 | 0.00 | 0.00 | 0.00 | 42 | 1022.5 |
| 20260502114235 | 70 | 156 | 1.0 | 9.0 | 0.00 | 0.00 | 0.00 | 41 | 1022.4 |
| 20260502114226 | 70 | 170 | 3.0 | 9.0 | 0.00 | 0.00 | 0.00 | 41 | 1022.6 |
| 20260502114211 | 70 | 160 | 2.0 | 9.0 | 0.00 | 0.00 | 0.00 | 41 | 1022.4 |
| 20260502113946 | 70 | 269 | 0.0 | 8.0 | 0.00 | 0.00 | 0.00 | 42 | 1022.5 |
| 20260502113931 | 70 | 180 | 0.0 | 8.0 | 0.00 | 0.00 | 0.00 | 41 | 1022.4 |
| 20260502113916 | 70 | 65 | 3.0 | 8.0 | 0.00 | 0.00 | 0.00 | 42 | 1022.6 |
| 20260502113637 | 70 | 186 | 0.0 | 9.0 | 0.00 | 0.00 | 0.00 | 42 | 1022.5 |
| 20260502113559 | 70 | 55 | 2.0 | 9.0 | 0.00 | 0.00 | 0.00 | 42 | 1022.5 |
| 20260502113544 | 71 | 81 | 0.0 | 9.0 | 0.00 | 0.00 | 0.00 | 41 | 1022.4 |
| 20260502113528 | 71 | 79 | 0.0 | 9.0 | 0.00 | 0.00 | 0.00 | 41 | 1022.5 |
| 20260502113514 | 71 | 196 | 2.0 | 9.0 | 0.00 | 0.00 | 0.00 | 42 | 1022.5 |
| 20260502113459 | 70 | 168 | 0.0 | 9.0 | 0.00 | 0.00 | 0.00 | 43 | 1022.5 |
| 20260502113230 | 70 | 161 | 1.0 | 9.0 | 0.00 | 0.00 | 0.00 | 43 | 1022.4 |
| 20260502112956 | 71 | 99 | 1.0 | 9.0 | 0.00 | 0.00 | 0.00 | 42 | 1022.7 |
| 20260502112657 | 71 | 158 | 5.0 | 9.0 | 0.00 | 0.00 | 0.00 | 43 | 1022.6 |
| 20260502112637 | 70 | 167 | 5.0 | 9.0 | 0.00 | 0.00 | 0.00 | 42 | 1023.0 |
| 20260502112536 | 70 | 204 | 0.0 | 8.0 | 0.00 | 0.00 | 0.00 | 42 | 1022.6 |
| 20260502112437 | 70 | 221 | 2.0 | 8.0 | 0.00 | 0.00 | 0.00 | 42 | 1022.9 |
| 20260502112335 | 70 | 66 | 1.0 | 8.0 | 0.00 | 0.00 | 0.00 | 42 | 1022.9 |
| 20260502112310 | 70 | 187 | 0.0 | 8.0 | 0.00 | 0.00 | 0.00 | 42 | 1022.7 |
| 20260502112254 | 71 | 117 | 0.0 | 8.0 | 0.00 | 0.00 | 0.00 | 42 | 1022.7 |
| 20260502112248 | 71 | 95 | 0.0 | 8.0 | 0.00 | 0.00 | 0.00 | 42 | 1022.7 |
| 20260502112232 | 71 | 186 | 0.0 | 8.0 | 0.00 | 0.00 | 0.00 | 42 | 1022.6 |
| 20260502111956 | 71 | 204 | 3.0 | 6.0 | 0.00 | 0.00 | 0.00 | 42 | 1022.7 |
| 20260502111655 | 71 | 192 | 0.0 | 7.0 | 0.00 | 0.00 | 0.00 | 42 | 1022.9 |
| 20260502111635 | 71 | 194 | 0.0 | 7.0 | 0.00 | 0.00 | 0.00 | 42 | 1023.1 |
| 20260502111535 | 71 | 180 | 0.0 | 7.0 | 0.00 | 0.00 | 0.00 | 42 | 1022.9 |
| 20260502111435 | 71 | 66 | 0.0 | 7.0 | 0.00 | 0.00 | 0.00 | 43 | 1022.7 |
| 20260502111329 | 71 | 58 | 1.0 | 7.0 | 0.00 | 0.00 | 0.00 | 44 | 1023.1 |
| 20260502111230 | 71 | 189 | 0.0 | 7.0 | 0.00 | 0.00 | 0.00 | 44 | 1022.9 |
| 20260502111150 | 70 | 184 | 0.0 | 7.0 | 0.00 | 0.00 | 0.00 | 44 | 1022.9 |
| 20260502111129 | 70 | 202 | 0.0 | 7.0 | 0.00 | 0.00 | 0.00 | 44 | 1022.6 |
| 20260502111109 | 70 | 75 | 2.0 | 6.0 | 0.00 | 0.00 | 0.00 | 43 | 1023.1 |
| 20260502111101 | 70 | 241 | 1.0 | 7.0 | 0.00 | 0.00 | 0.00 | 44 | 1022.9 |
| 20260502111045 | 69 | 189 | 0.0 | 7.0 | 0.00 | 0.00 | 0.00 | 43 | 1022.9 |
| 20260502111029 | 69 | 225 | 3.0 | 7.0 | 0.00 | 0.00 | 0.00 | 43 | 1022.9 |
| 20260502111014 | 69 | 212 | 2.0 | 7.0 | 0.00 | 0.00 | 0.00 | 44 | 1022.9 |
| 20260502111000 | 69 | 233 | 4.0 | 7.0 | 0.00 | 0.00 | 0.00 | 43 | 1022.9 |
| 20260502110950 | 69 | 213 | 5.0 | 7.0 | 0.00 | 0.00 | 0.00 | 43 | 1022.9 |
| 20260502110936 | 69 | 168 | 1.0 | 7.0 | 0.00 | 0.00 | 0.00 | 43 | 1022.6 |
| 20260502110701 | 69 | 102 | 0.0 | 7.0 | 0.00 | 0.00 | 0.00 | 43 | 1022.9 |
| 20260502110644 | 69 | 67 | 1.0 | 7.0 | 0.00 | 0.00 | 0.00 | 43 | 1022.9 |
| 20260502110631 | 69 | 69 | 3.0 | 7.0 | 0.00 | 0.00 | 0.00 | 43 | 1022.9 |
| 20260502110400 | 69 | 137 | 1.0 | 6.0 | 0.00 | 0.00 | 0.00 | 43 | 1022.9 |
| 20260502110344 | 69 | 100 | 2.0 | 6.0 | 0.00 | 0.00 | 0.00 | 44 | 1023.0 |
| 20260502105613 | 70 | 38 | 3.0 | 6.0 | 0.00 | 0.00 | 0.00 | 43 | 1023.1 |
| 20260502105513 | 70 | 97 | 1.0 | 6.0 | 0.00 | 0.00 | 0.00 | 43 | 1023.2 |
| 20260502105413 | 70 | 44 | 1.0 | 6.0 | 0.00 | 0.00 | 0.00 | 43 | 1023.2 |
| 20260502105335 | 70 | 130 | 0.0 | 6.0 | 0.00 | 0.00 | 0.00 | 43 | 1023.2 |
| 20260502105318 | 70 | 125 | 1.0 | 6.0 | 0.00 | 0.00 | 0.00 | 43 | 1023.1 |
| 20260502105306 | 70 | 151 | 1.0 | 6.0 | 0.00 | 0.00 | 0.00 | 43 | 1023.1 |
| 20260502105253 | 70 | 107 | 0.0 | 6.0 | 0.00 | 0.00 | 0.00 | 43 | 1023.1 |
| 20260502105029 | 70 | 48 | 2.0 | 6.0 | 0.00 | 0.00 | 0.00 | 43 | 1023.1 |
| 20260502105014 | 70 | 52 | 1.0 | 6.0 | 0.00 | 0.00 | 0.00 | 43 | 1023.0 |
| 20260502104958 | 70 | 144 | 2.0 | 4.0 | 0.00 | 0.00 | 0.00 | 43 | 1023.2 |
| 20260502104734 | 71 | 58 | 2.0 | 6.0 | 0.00 | 0.00 | 0.00 | 43 | 1023.3 |
| 20260502104721 | 71 | 106 | 1.0 | 6.0 | 0.00 | 0.00 | 0.00 | 43 | 1023.3 |
| 20260502104712 | 71 | 54 | 3.0 | 6.0 | 0.00 | 0.00 | 0.00 | 42 | 1023.1 |
| 20260502104656 | 71 | 178 | 0.0 | 6.0 | 0.00 | 0.00 | 0.00 | 42 | 1023.2 |
| 20260502104421 | 71 | 138 | 0.0 | 6.0 | 0.00 | 0.00 | 0.00 | 43 | 1023.4 |
| 20260502104405 | 71 | 51 | 0.0 | 6.0 | 0.00 | 0.00 | 0.00 | 43 | 1023.1 |
| 20260502104137 | 71 | 50 | 1.0 | 6.0 | 0.00 | 0.00 | 0.00 | 43 | 1023.4 |
| 20260502104121 | 71 | 192 | 0.0 | 6.0 | 0.00 | 0.00 | 0.00 | 42 | 1023.2 |
| 20260502103801 | 70 | 156 | 1.0 | 6.0 | 0.00 | 0.00 | 0.00 | 42 | 1023.2 |
| 20260502103659 | 70 | 41 | 4.0 | 4.0 | 0.00 | 0.00 | 0.00 | 42 | 1023.1 |
| 20260502103631 | 70 | 141 | 0.0 | 4.0 | 0.00 | 0.00 | 0.00 | 43 | 1023.1 |
| 20260502103557 | 70 | 169 | 0.0 | 4.0 | 0.00 | 0.00 | 0.00 | 41 | 1023.1 |
| 20260502103529 | 71 | 71 | 1.0 | 4.0 | 0.00 | 0.00 | 0.00 | 42 | 1023.4 |
| 20260502103512 | 71 | 68 | 2.0 | 6.0 | 0.00 | 0.00 | 0.00 | 41 | 1023.0 |
| 20260502103155 | 70 | 198 | 0.0 | 6.0 | 0.00 | 0.00 | 0.00 | 42 | 1023.3 |
| 20260502103140 | 70 | 215 | 0.0 | 6.0 | 0.00 | 0.00 | 0.00 | 42 | 1023.3 |
| 20260502103130 | 71 | 174 | 1.0 | 6.0 | 0.00 | 0.00 | 0.00 | 41 | 1023.3 |
| 20260502103114 | 72 | 46 | 4.0 | 6.0 | 0.00 | 0.00 | 0.00 | 40 | 1023.3 |
| 20260502102835 | 72 | 189 | 0.0 | 6.0 | 0.00 | 0.00 | 0.00 | 41 | 1023.5 |
| 20260502102819 | 72 | 52 | 1.0 | 6.0 | 0.00 | 0.00 | 0.00 | 43 | 1023.3 |
| 20260502102806 | 71 | 157 | 0.0 | 6.0 | 0.00 | 0.00 | 0.00 | 40 | 1023.3 |
| 20260502102453 | 71 | 196 | 2.0 | 6.0 | 0.00 | 0.00 | 0.00 | 41 | 1023.2 |
| 20260502102353 | 71 | 212 | 2.0 | 2.0 | 0.00 | 0.00 | 0.00 | 41 | 1023.3 |
| 20260502102253 | 71 | 84 | 0.0 | 2.0 | 0.00 | 0.00 | 0.00 | 42 | 1023.4 |
| 20260502102154 | 72 | 142 | 0.0 | 2.0 | 0.00 | 0.00 | 0.00 | 43 | 1023.7 |
| 20260502102125 | 72 | 162 | 0.0 | 2.0 | 0.00 | 0.00 | 0.00 | 42 | 1023.5 |
| 20260502102052 | 72 | 183 | 0.0 | 2.0 | 0.00 | 0.00 | 0.00 | 41 | 1023.5 |
| 20260502101953 | 73 | 192 | 0.0 | 2.0 | 0.00 | 0.00 | 0.00 | 42 | 1023.6 |
| 20260502101655 | 73 | 221 | 1.0 | 2.0 | 0.00 | 0.00 | 0.00 | 42 | 1023.3 |
| 20260502101625 | 73 | 179 | 0.0 | 2.0 | 0.00 | 0.00 | 0.00 | 42 | 1023.6 |
| 20260502101554 | 73 | 187 | 0.0 | 2.0 | 0.00 | 0.00 | 0.00 | 43 | 1023.6 |
| 20260502101450 | 73 | 196 | 1.0 | 2.0 | 0.00 | 0.00 | 0.00 | 45 | 1023.4 |
| 20260502101354 | 72 | 107 | 1.0 | 2.0 | 0.00 | 0.00 | 0.00 | 45 | 1023.6 |
| 20260502101337 | 72 | 192 | 0.0 | 2.0 | 0.00 | 0.00 | 0.00 | 43 | 1023.6 |
| 20260502101321 | 73 | 206 | 0.0 | 2.0 | 0.00 | 0.00 | 0.00 | 42 | 1023.7 |
| 20260502101304 | 73 | 306 | 1.0 | 2.0 | 0.00 | 0.00 | 0.00 | 42 | 1023.5 |
| 20260502100950 | 73 | 66 | 0.0 | 1.0 | 0.00 | 0.00 | 0.00 | 42 | 1023.6 |
| 20260502100924 | 73 | 196 | 0.0 | 1.0 | 0.00 | 0.00 | 0.00 | 44 | 1023.5 |
| 20260502100908 | 74 | 180 | 0.0 | 1.0 | 0.00 | 0.00 | 0.00 | 43 | 1023.6 |
| 20260502100619 | 74 | 200 | 0.0 | 7.0 | 0.00 | 0.00 | 0.00 | 40 | 1023.5 |
| 20260502100601 | 73 | 268 | 0.0 | 7.0 | 0.00 | 0.00 | 0.00 | 41 | 1023.5 |
| 20260502100544 | 73 | 187 | 0.0 | 7.0 | 0.00 | 0.00 | 0.00 | 43 | 1023.5 |
| 20260502100526 | 73 | 215 | 0.0 | 7.0 | 0.00 | 0.00 | 0.00 | 41 | 1023.6 |
| 20260502100510 | 72 | 197 | 0.0 | 7.0 | 0.00 | 0.00 | 0.00 | 43 | 1023.7 |
| 20260502100455 | 72 | 192 | 0.0 | 7.0 | 0.00 | 0.00 | 0.00 | 44 | 1023.8 |
| 20260502100440 | 71 | 192 | 0.0 | 7.0 | 0.00 | 0.00 | 0.00 | 44 | 1023.8 |
| 20260502100430 | 71 | 192 | 0.0 | 7.0 | 0.00 | 0.00 | 0.00 | 44 | 1023.6 |
| 20260502100153 | 71 | 184 | 0.0 | 7.0 | 0.00 | 0.00 | 0.00 | 43 | 1023.6 |
| 20260502091527 | 70 | 39 | 1.0 | 8.0 | 0.00 | 0.00 | 0.00 | 46 | 1024.1 |
| 20260502091250 | 69 | 134 | 1.0 | 8.0 | 0.00 | 0.00 | 0.00 | 45 | 1024.1 |
| 20260502091234 | 69 | 36 | 1.0 | 8.0 | 0.00 | 0.00 | 0.00 | 45 | 1024.1 |
| 20260502091009 | 69 | 93 | 1.0 | 8.0 | 0.00 | 0.00 | 0.00 | 45 | 1024.1 |
| 20260502090953 | 69 | 43 | 2.0 | 8.0 | 0.00 | 0.00 | 0.00 | 44 | 1024.1 |
| 20260502090717 | 69 | 29 | 1.0 | 8.0 | 0.00 | 0.00 | 0.00 | 44 | 1024.2 |
| 20260502090448 | 70 | 60 | 3.0 | 8.0 | 0.00 | 0.00 | 0.00 | 44 | 1024.3 |
| 20260502090212 | 70 | 66 | 4.0 | 7.0 | 0.00 | 0.00 | 0.00 | 43 | 1024.3 |
| 20260502090155 | 70 | 81 | 0.0 | 7.0 | 0.00 | 0.00 | 0.00 | 45 | 1024.3 |
| 20260502071451 | 66 | 111 | 1.0 | 2.0 | 0.00 | 0.00 | 0.00 | 50 | 1024.4 |
| 20260502071436 | 66 | 51 | 1.0 | 2.0 | 0.00 | 0.00 | 0.00 | 50 | 1024.4 |
| 20260502071420 | 66 | 114 | 0.0 | 2.0 | 0.00 | 0.00 | 0.00 | 50 | 1024.5 |
| 20260502071404 | 66 | 146 | 0.0 | 2.0 | 0.00 | 0.00 | 0.00 | 51 | 1024.4 |
| 20260502070915 | 65 | 83 | 0.0 | 2.0 | 0.00 | 0.00 | 0.00 | 51 | 1024.5 |
| 20260502070859 | 65 | 98 | 1.0 | 2.0 | 0.00 | 0.00 | 0.00 | 52 | 1024.3 |
| 20260502070624 | 65 | 109 | 0.0 | 2.0 | 0.00 | 0.00 | 0.00 | 52 | 1024.5 |
| 20260502070617 | 65 | 109 | 0.0 | 2.0 | 0.00 | 0.00 | 0.00 | 52 | 1024.5 |
| 20260502070257 | 65 | 89 | 1.0 | 2.0 | 0.00 | 0.00 | 0.00 | 52 | 1024.2 |
| 20260502070157 | 65 | 90 | 1.0 | 2.0 | 0.00 | 0.00 | 0.00 | 53 | 1024.2 |
| 20260502070058 | 65 | 162 | 0.0 | 2.0 | 0.00 | 0.00 | 0.00 | 55 | 1024.4 |
| 20260502070007 | 65 | 165 | 0.0 | 2.0 | 0.00 | 0.00 | 0.00 | 52 | 1024.6 |
| 20260502065958 | 65 | 168 | 0.0 | 2.0 | 0.00 | 0.00 | 0.00 | 52 | 1024.6 |
| 20260502065853 | 65 | 64 | 0.0 | 2.0 | 0.00 | 0.00 | 0.00 | 52 | 1024.4 |
| 20260502065744 | 64 | 171 | 0.0 | 2.0 | 0.00 | 0.00 | 0.00 | 54 | 1024.4 |
| 20260502065643 | 64 | 172 | 0.0 | 2.0 | 0.00 | 0.00 | 0.00 | 53 | 1024.3 |
| 20260502065544 | 64 | 133 | 1.0 | 2.0 | 0.00 | 0.00 | 0.00 | 53 | 1024.5 |
| 20260502065504 | 64 | 71 | 1.0 | 2.0 | 0.00 | 0.00 | 0.00 | 53 | 1024.4 |
| 20260502065443 | 64 | 77 | 1.0 | 2.0 | 0.00 | 0.00 | 0.00 | 55 | 1024.6 |
| 20260502065342 | 64 | 73 | 1.0 | 2.0 | 0.00 | 0.00 | 0.00 | 53 | 1024.5 |
| 20260502065241 | 64 | 158 | 1.0 | 2.0 | 0.00 | 0.00 | 0.00 | 53 | 1024.6 |
| 20260502065143 | 64 | 100 | 0.0 | 2.0 | 0.00 | 0.00 | 0.00 | 53 | 1024.4 |
| 20260502065041 | 64 | 87 | 1.0 | 2.0 | 0.00 | 0.00 | 0.00 | 53 | 1024.3 |
| 20260502065001 | 64 | 136 | 0.0 | 2.0 | 0.00 | 0.00 | 0.00 | 55 | 1024.3 |
| 20260502064941 | 64 | 47 | 2.0 | 2.0 | 0.00 | 0.00 | 0.00 | 54 | 1024.4 |
| 20260502064841 | 64 | 176 | 0.0 | 2.0 | 0.00 | 0.00 | 0.00 | 55 | 1024.5 |
| 20260502064741 | 64 | 178 | 0.0 | 2.0 | 0.00 | 0.00 | 0.00 | 55 | 1024.5 |
| 20260502064720 | 64 | 163 | 0.0 | 2.0 | 0.00 | 0.00 | 0.00 | 57 | 1024.4 |
| 20260502064704 | 63 | 121 | 0.0 | 2.0 | 0.00 | 0.00 | 0.00 | 57 | 1024.5 |
| 20260502064648 | 64 | 121 | 0.0 | 2.0 | 0.00 | 0.00 | 0.00 | 57 | 1024.5 |
| 20260502064400 | 64 | 99 | 0.0 | 2.0 | 0.00 | 0.00 | 0.00 | 55 | 1024.6 |
| 20260502064341 | 64 | 162 | 0.0 | 2.0 | 0.00 | 0.00 | 0.00 | 55 | 1024.5 |
| 20260502064325 | 64 | 186 | 0.0 | 2.0 | 0.00 | 0.00 | 0.00 | 56 | 1024.5 |
| 20260502064310 | 64 | 144 | 0.0 | 2.0 | 0.00 | 0.00 | 0.00 | 56 | 1024.4 |
| 20260502064255 | 64 | 192 | 0.0 | 2.0 | 0.00 | 0.00 | 0.00 | 56 | 1024.4 |
| 20260502064027 | 63 | 175 | 0.0 | 1.0 | 0.00 | 0.00 | 0.00 | 56 | 1024.4 |
| 20260502064012 | 63 | 172 | 0.0 | 1.0 | 0.00 | 0.00 | 0.00 | 57 | 1024.6 |
| 20260502063736 | 62 | 181 | 0.0 | 1.0 | 0.00 | 0.00 | 0.00 | 58 | 1024.4 |
| 20260502063720 | 62 | 176 | 0.0 | 1.0 | 0.00 | 0.00 | 0.00 | 58 | 1024.4 |
| 20260502063452 | 63 | 160 | 0.0 | 1.0 | 0.00 | 0.00 | 0.00 | 58 | 1024.4 |
| 20260502063130 | 62 | 177 | 0.0 | 1.0 | 0.00 | 0.00 | 0.00 | 58 | 1024.6 |
| 20260502063030 | 62 | 173 | 0.0 | 1.0 | 0.00 | 0.00 | 0.00 | 58 | 1024.9 |
| 20260502062950 | 62 | 158 | 0.0 | 1.0 | 0.00 | 0.00 | 0.00 | 58 | 1024.9 |
| 20260502062923 | 63 | 160 | 0.0 | 1.0 | 0.00 | 0.00 | 0.00 | 59 | 1024.5 |
| 20260502062817 | 62 | 180 | 0.0 | 1.0 | 0.00 | 0.00 | 0.00 | 59 | 1024.5 |
| 20260502062719 | 62 | 175 | 0.0 | 1.0 | 0.00 | 0.00 | 0.00 | 58 | 1024.4 |
| 20260502062656 | 62 | 168 | 0.0 | 1.0 | 0.00 | 0.00 | 0.00 | 59 | 1024.6 |
| 20260502062640 | 62 | 169 | 0.0 | 1.0 | 0.00 | 0.00 | 0.00 | 59 | 1024.5 |
| 20260502062627 | 62 | 169 | 0.0 | 1.0 | 0.00 | 0.00 | 0.00 | 60 | 1024.5 |
| 20260502062313 | 62 | 173 | 0.0 | 1.0 | 0.00 | 0.00 | 0.00 | 59 | 1024.3 |
| 20260502062212 | 61 | 179 | 0.0 | 1.0 | 0.00 | 0.00 | 0.00 | 59 | 1024.4 |
| 20260502062113 | 61 | 188 | 0.0 | 1.0 | 0.00 | 0.00 | 0.00 | 60 | 1024.6 |
| 20260502062052 | 61 | 182 | 0.0 | 1.0 | 0.00 | 0.00 | 0.00 | 60 | 1024.5 |
| 20260502062037 | 61 | 167 | 0.0 | 1.0 | 0.00 | 0.00 | 0.00 | 60 | 1024.5 |
| 20260502062028 | 61 | 180 | 0.0 | 1.0 | 0.00 | 0.00 | 0.00 | 59 | 1024.4 |
| 20260502061746 | 61 | 89 | 1.0 | 1.0 | 0.00 | 0.00 | 0.00 | 58 | 1024.5 |
| 20260502061738 | 61 | 163 | 0.0 | 1.0 | 0.00 | 0.00 | 0.00 | 59 | 1024.5 |
| 20260502061722 | 61 | 155 | 0.0 | 1.0 | 0.00 | 0.00 | 0.00 | 58 | 1024.7 |
| 20260502061707 | 61 | 126 | 0.0 | 1.0 | 0.00 | 0.00 | 0.00 | 58 | 1024.6 |
| 20260502061440 | 61 | 130 | 0.0 | 1.0 | 0.00 | 0.00 | 0.00 | 58 | 1024.5 |
| 20260502061422 | 61 | 180 | 0.0 | 1.0 | 0.00 | 0.00 | 0.00 | 59 | 1024.4 |
| 20260502061101 | 61 | 152 | 0.0 | 1.0 | 0.00 | 0.00 | 0.00 | 60 | 1024.5 |
| 20260502061002 | 61 | 155 | 0.0 | 1.0 | 0.00 | 0.00 | 0.00 | 61 | 1024.6 |
| 20260502060933 | 61 | 164 | 0.0 | 1.0 | 0.00 | 0.00 | 0.00 | 62 | 1024.4 |
| 20260502060853 | 61 | 185 | 0.0 | 1.0 | 0.00 | 0.00 | 0.00 | 61 | 1024.4 |
| 20260502060752 | 60 | 187 | 0.0 | 1.0 | 0.00 | 0.00 | 0.00 | 62 | 1024.7 |
| 20260502060647 | 60 | 183 | 0.0 | 1.0 | 0.00 | 0.00 | 0.00 | 62 | 1024.4 |
| 20260502060546 | 60 | 180 | 0.0 | 1.0 | 0.00 | 0.00 | 0.00 | 62 | 1024.5 |
| 20260502060440 | 60 | 145 | 0.0 | 1.0 | 0.00 | 0.00 | 0.00 | 61 | 1024.3 |
| 20260502060428 | 60 | 156 | 0.0 | 1.0 | 0.00 | 0.00 | 0.00 | 61 | 1024.5 |
| 20260502060341 | 60 | 178 | 0.0 | 1.0 | 0.00 | 0.00 | 0.00 | 61 | 1024.5 |
| 20260502060242 | 60 | 173 | 0.0 | 1.0 | 0.00 | 0.00 | 0.00 | 62 | 1024.3 |
| 20260502060142 | 60 | 182 | 0.0 | 1.0 | 0.00 | 0.00 | 0.00 | 63 | 1024.6 |
| 20260502060040 | 59 | 186 | 0.0 | 1.0 | 0.00 | 0.00 | 0.00 | 63 | 1024.7 |
| 20260502055923 | 59 | 186 | 0.0 | 1.0 | 0.00 | 0.00 | 0.00 | 63 | 1024.3 |
| 20260502055837 | 59 | 184 | 0.0 | 1.0 | 0.00 | 0.00 | 0.00 | 63 | 1024.6 |
| 20260502055805 | 59 | 169 | 0.0 | 1.0 | 0.00 | 0.00 | 0.00 | 64 | 1024.7 |
| 20260502055749 | 59 | 166 | 0.0 | 1.0 | 0.00 | 0.00 | 0.00 | 65 | 1024.5 |
| 20260502055733 | 59 | 179 | 0.0 | 1.0 | 0.00 | 0.00 | 0.00 | 65 | 1024.5 |
| 20260502055509 | 59 | 182 | 0.0 | 1.0 | 0.00 | 0.00 | 0.00 | 65 | 1024.4 |
| 20260502055456 | 59 | 182 | 0.0 | 1.0 | 0.00 | 0.00 | 0.00 | 64 | 1024.4 |
| 20260502055444 | 58 | 185 | 0.0 | 1.0 | 0.00 | 0.00 | 0.00 | 65 | 1024.4 |
| 20260502055426 | 58 | 185 | 0.0 | 1.0 | 0.00 | 0.00 | 0.00 | 66 | 1024.7 |
| 20260502055202 | 58 | 185 | 0.0 | 1.0 | 0.00 | 0.00 | 0.00 | 66 | 1024.5 |
| 20260502055147 | 58 | 144 | 0.0 | 1.0 | 0.00 | 0.00 | 0.00 | 67 | 1024.6 |
| 20260502055131 | 57 | 170 | 0.0 | 1.0 | 0.00 | 0.00 | 0.00 | 66 | 1024.5 |
| 20260502054828 | 57 | 144 | 0.0 | 1.0 | 0.00 | 0.00 | 0.00 | 66 | 1024.4 |
| 20260502054756 | 56 | 136 | 0.0 | 1.0 | 0.00 | 0.00 | 0.00 | 65 | 1024.6 |
| 20260502054742 | 56 | 136 | 0.0 | 1.0 | 0.00 | 0.00 | 0.00 | 66 | 1024.4 |
| 20260502054417 | 56 | 168 | 0.0 | 1.0 | 0.00 | 0.00 | 0.00 | 65 | 1024.5 |
| 20260502054316 | 56 | 106 | 0.0 | 1.0 | 0.00 | 0.00 | 0.00 | 66 | 1024.7 |
| 20260502054217 | 56 | 119 | 0.0 | 1.0 | 0.00 | 0.00 | 0.00 | 66 | 1024.7 |
| 20260502054116 | 56 | 126 | 0.0 | 1.0 | 0.00 | 0.00 | 0.00 | 67 | 1024.3 |
| 20260502054055 | 56 | 166 | 0.0 | 1.0 | 0.00 | 0.00 | 0.00 | 67 | 1024.4 |
| 20260502054031 | 56 | 162 | 0.0 | 1.0 | 0.00 | 0.00 | 0.00 | 68 | 1024.4 |
| 20260502053659 | 55 | 143 | 0.0 | 1.0 | 0.00 | 0.00 | 0.00 | 68 | 1024.4 |
| 20260502053633 | 55 | 140 | 0.0 | 1.0 | 0.00 | 0.00 | 0.00 | 69 | 1024.3 |
| 20260502053617 | 55 | 157 | 0.0 | 1.0 | 0.00 | 0.00 | 0.00 | 69 | 1024.5 |
| 20260502053601 | 55 | 166 | 0.0 | 1.0 | 0.00 | 0.00 | 0.00 | 70 | 1024.4 |
| 20260502053554 | 55 | 166 | 0.0 | 1.0 | 0.00 | 0.00 | 0.00 | 70 | 1024.4 |
| 20260502053314 | 55 | 124 | 0.0 | 1.0 | 0.00 | 0.00 | 0.00 | 70 | 1024.5 |
| 20260502053258 | 54 | 148 | 0.0 | 1.0 | 0.00 | 0.00 | 0.00 | 70 | 1024.4 |
| 20260502053022 | 54 | 137 | 0.0 | 1.0 | 0.00 | 0.00 | 0.00 | 71 | 1024.3 |
| 20260502053015 | 54 | 137 | 0.0 | 1.0 | 0.00 | 0.00 | 0.00 | 71 | 1024.3 |
| 20260502052730 | 54 | 141 | 0.0 | 1.0 | 0.00 | 0.00 | 0.00 | 71 | 1024.4 |
| 20260502052714 | 54 | 122 | 1.0 | 1.0 | 0.00 | 0.00 | 0.00 | 73 | 1024.5 |
| 20260502052434 | 54 | 160 | 0.0 | 0.0 | 0.00 | 0.00 | 0.00 | 73 | 1024.3 |
| 20260502052428 | 54 | 160 | 0.0 | 0.0 | 0.00 | 0.00 | 0.00 | 72 | 1024.3 |
| 20260502052410 | 54 | 166 | 0.0 | 0.0 | 0.00 | 0.00 | 0.00 | 74 | 1024.4 |
| 20260502052355 | 54 | 170 | 0.0 | 0.0 | 0.00 | 0.00 | 0.00 | 74 | 1024.5 |
| 20260502052120 | 54 | 170 | 0.0 | 0.0 | 0.00 | 0.00 | 0.00 | 75 | 1024.5 |
| 20260502052103 | 54 | 164 | 0.0 | 0.0 | 0.00 | 0.00 | 0.00 | 76 | 1024.3 |
| 20260502051837 | 53 | 170 | 0.0 | 0.0 | 0.00 | 0.00 | 0.00 | 76 | 1024.5 |
| 20260502051825 | 53 | 170 | 0.0 | 0.0 | 0.00 | 0.00 | 0.00 | 75 | 1024.5 |
| 20260502051809 | 53 | 169 | 0.0 | 0.0 | 0.00 | 0.00 | 0.00 | 75 | 1024.5 |
| 20260502051752 | 53 | 170 | 0.0 | 0.0 | 0.00 | 0.00 | 0.00 | 76 | 1024.5 |
| 20260502051735 | 53 | 170 | 0.0 | 0.0 | 0.00 | 0.00 | 0.00 | 75 | 1024.3 |
| 20260502051508 | 53 | 170 | 0.0 | 0.0 | 0.00 | 0.00 | 0.00 | 75 | 1024.5 |
| 20260502051227 | 49 | 169 | 0.0 | 0.0 | 0.00 | 0.00 | 0.00 | 82 | 1024.1 |
| 20260502051223 | 52 | 172 | 0.0 | 0.0 | 0.00 | 0.00 | 0.00 | 75 | 1024.5 |
| 20260502051212 | 53 | 169 | 0.0 | 0.0 | 0.00 | 0.00 | 0.00 | 76 | 1024.5 |
| 20260502051156 | 53 | 168 | 0.0 | 0.0 | 0.00 | 0.00 | 0.00 | 76 | 1024.5 |
| 20260502051139 | 53 | 166 | 0.0 | 0.0 | 0.00 | 0.00 | 0.00 | 77 | 1024.5 |
| 20260502051116 | 53 | 160 | 0.0 | 0.0 | 0.00 | 0.00 | 0.00 | 76 | 1024.6 |
| 20260502051100 | 53 | 163 | 0.0 | 0.0 | 0.00 | 0.00 | 0.00 | 75 | 1024.5 |
| 20260502051043 | 53 | 173 | 0.0 | 0.0 | 0.00 | 0.00 | 0.00 | 75 | 1024.4 |
| 20260502050808 | 52 | 173 | 0.0 | 0.0 | 0.00 | 0.00 | 0.00 | 75 | 1024.4 |
| 20260502050540 | 52 | 171 | 0.0 | 0.0 | 0.00 | 0.00 | 0.00 | 75 | 1024.5 |
| 20260502050522 | 52 | 160 | 0.0 | 0.0 | 0.00 | 0.00 | 0.00 | 76 | 1024.4 |
| 20260502050248 | 51 | 165 | 0.0 | 0.0 | 0.00 | 0.00 | 0.00 | 77 | 1024.5 |
| 20260502050023 | 51 | 167 | 0.0 | 0.0 | 0.00 | 0.00 | 0.00 | 78 | 1024.5 |
| 20260502050007 | 51 | 168 | 0.0 | 0.0 | 0.00 | 0.00 | 0.00 | 78 | 1024.6 |
| 20260502050000 | 51 | 169 | 0.0 | 0.0 | 0.00 | 0.00 | 0.00 | 78 | 1024.6 |
| 20260502045944 | 51 | 167 | 0.0 | 0.0 | 0.00 | 0.00 | 0.00 | 78 | 1024.5 |
| 20260502045928 | 50 | 167 | 0.0 | 0.0 | 0.00 | 0.00 | 0.00 | 79 | 1024.5 |
| 20260502045913 | 50 | 169 | 0.0 | 0.0 | 0.00 | 0.00 | 0.00 | 79 | 1024.5 |
| 20260502045635 | 50 | 167 | 0.0 | 0.0 | 0.00 | 0.00 | 0.00 | 80 | 1024.4 |
| 20260502045403 | 49 | 169 | 0.0 | 0.0 | 0.00 | 0.00 | 0.00 | 81 | 1024.3 |
| 20260502045348 | 49 | 170 | 0.0 | 0.0 | 0.00 | 0.00 | 0.00 | 81 | 1024.4 |
| 20260502045332 | 49 | 170 | 0.0 | 0.0 | 0.00 | 0.00 | 0.00 | 81 | 1024.4 |
| 20260502044841 | 49 | 169 | 0.0 | 0.0 | 0.00 | 0.00 | 0.00 | 82 | 1024.1 |
| 20260502044740 | 49 | 168 | 0.0 | 0.0 | 0.00 | 0.00 | 0.00 | 82 | 1024.2 |
| 20260502044642 | 48 | 168 | 0.0 | 0.0 | 0.00 | 0.00 | 0.00 | 82 | 1024.2 |
| 20260502044540 | 48 | 169 | 0.0 | 0.0 | 0.00 | 0.00 | 0.00 | 83 | 1024.3 |
| 20260502044440 | 48 | 169 | 0.0 | 0.0 | 0.00 | 0.00 | 0.00 | 83 | 1024.1 |
| 20260502044340 | 48 | 169 | 0.0 | 0.0 | 0.00 | 0.00 | 0.00 | 84 | 1024.1 |
| 20260502044241 | 48 | 169 | 0.0 | 0.0 | 0.00 | 0.00 | 0.00 | 84 | 1024.3 |
| 20260502044216 | 48 | 171 | 0.0 | 0.0 | 0.00 | 0.00 | 0.00 | 84 | 1024.3 |
| 20260502044200 | 47 | 171 | 0.0 | 0.0 | 0.00 | 0.00 | 0.00 | 85 | 1024.3 |
| 20260502043842 | 47 | 171 | 0.0 | 0.0 | 0.00 | 0.00 | 0.00 | 85 | 1024.5 |
| 20260502043740 | 47 | 170 | 0.0 | 0.0 | 0.00 | 0.00 | 0.00 | 86 | 1024.2 |
| 20260502043706 | 45 | 171 | 0.0 | 0.0 | 0.00 | 0.00 | 0.00 | 88 | 1024.3 |
| 20260502043700 | 47 | 173 | 0.0 | 0.0 | 0.00 | 0.00 | 0.00 | 86 | 1024.3 |
| 20260502043644 | 47 | 173 | 0.0 | 0.0 | 0.00 | 0.00 | 0.00 | 86 | 1024.3 |
| 20260502043629 | 46 | 173 | 0.0 | 0.0 | 0.00 | 0.00 | 0.00 | 87 | 1024.4 |
| 20260502043613 | 46 | 173 | 0.0 | 0.0 | 0.00 | 0.00 | 0.00 | 87 | 1024.4 |
| 20260502043343 | 46 | 173 | 0.0 | 0.0 | 0.00 | 0.00 | 0.00 | 87 | 1024.4 |
| 20260502043327 | 46 | 173 | 0.0 | 0.0 | 0.00 | 0.00 | 0.00 | 87 | 1024.4 |
| 20260502043312 | 46 | 172 | 0.0 | 0.0 | 0.00 | 0.00 | 0.00 | 87 | 1024.5 |
| 20260502043256 | 46 | 172 | 0.0 | 0.0 | 0.00 | 0.00 | 0.00 | 88 | 1024.3 |
| 20260502042718 | 45 | 174 | 0.0 | 0.0 | 0.00 | 0.00 | 0.00 | 88 | 1024.4 |
| 20260502042617 | 45 | 174 | 0.0 | 0.0 | 0.00 | 0.00 | 0.00 | 89 | 1024.3 |
| 20260502042542 | 45 | 174 | 0.0 | 0.0 | 0.00 | 0.00 | 0.00 | 89 | 1024.4 |
| 20260502042527 | 45 | 174 | 0.0 | 0.0 | 0.00 | 0.00 | 0.00 | 89 | 1024.3 |
| 20260502042511 | 45 | 174 | 0.0 | 0.0 | 0.00 | 0.00 | 0.00 | 90 | 1024.0 |
| 20260502042502 | 45 | 174 | 0.0 | 0.0 | 0.00 | 0.00 | 0.00 | 90 | 1024.0 |
| 20260502042443 | 45 | 174 | 0.0 | 0.0 | 0.00 | 0.00 | 0.00 | 90 | 1024.3 |
| 20260502042427 | 45 | 174 | 0.0 | 0.0 | 0.00 | 0.00 | 0.00 | 91 | 1024.1 |
| 20260502042412 | 45 | 174 | 0.0 | 0.0 | 0.00 | 0.00 | 0.00 | 92 | 1024.1 |
| 20260502042356 | 44 | 174 | 0.0 | 0.0 | 0.00 | 0.00 | 0.00 | 92 | 1024.4 |
| 20260502042341 | 44 | 174 | 0.0 | 0.0 | 0.00 | 0.00 | 0.00 | 92 | 1024.3 |
| 20260502042113 | 44 | 174 | 0.0 | 0.0 | 0.00 | 0.00 | 0.00 | 93 | 1024.1 |
| 20260502042057 | 44 | 174 | 0.0 | 0.0 | 0.00 | 0.00 | 0.00 | 94 | 1024.2 |
| 20260502042041 | 43 | 174 | 0.0 | 0.0 | 0.00 | 0.00 | 0.00 | 94 | 1024.4 |
| 20260502041759 | 43 | 174 | 0.0 | 0.0 | 0.00 | 0.00 | 0.00 | 94 | 1024.2 |
| 20260502041741 | 43 | 174 | 0.0 | 0.0 | 0.00 | 0.00 | 0.00 | 94 | 1024.1 |
| 20260502041024 | 42 | 174 | 0.0 | 0.0 | 0.00 | 0.00 | 0.00 | 95 | 1024.1 |
| 20260502040711 | 42 | 174 | 0.0 | 0.0 | 0.00 | 0.00 | 0.00 | 95 | 1024.3 |
| 20260502040611 | 42 | 174 | 0.0 | 0.0 | 0.00 | 0.00 | 0.00 | 95 | 1024.0 |
| 20260502040509 | 42 | 174 | 0.0 | 0.0 | 0.00 | 0.00 | 0.00 | 95 | 1024.1 |
| 20260502040410 | 42 | 174 | 0.0 | 0.0 | 0.00 | 0.00 | 0.00 | 95 | 1024.2 |
| 20260502040311 | 42 | 174 | 0.0 | 0.0 | 0.00 | 0.00 | 0.00 | 95 | 1024.2 |
| 20260502040210 | 42 | 174 | 0.0 | 0.0 | 0.00 | 0.00 | 0.00 | 96 | 1024.0 |
| 20260502040110 | 42 | 174 | 0.0 | 0.0 | 0.00 | 0.00 | 0.00 | 96 | 1023.9 |
| 20260502040011 | 42 | 174 | 0.0 | 0.0 | 0.00 | 0.00 | 0.00 | 96 | 1024.1 |
| 20260502035906 | 42 | 174 | 0.0 | 0.0 | 0.00 | 0.00 | 0.00 | 96 | 1024.1 |
| 20260502035805 | 42 | 174 | 0.0 | 0.0 | 0.00 | 0.00 | 0.00 | 96 | 1024.2 |
| 20260502035705 | 41 | 174 | 0.0 | 0.0 | 0.00 | 0.00 | 0.00 | 96 | 1024.0 |
| 20260502035608 | 41 | 174 | 0.0 | 0.0 | 0.00 | 0.00 | 0.00 | 96 | 1024.0 |
| 20260502035551 | 41 | 174 | 0.0 | 0.0 | 0.00 | 0.00 | 0.00 | 96 | 1024.0 |
| 20260502035534 | 41 | 174 | 0.0 | 0.0 | 0.00 | 0.00 | 0.00 | 96 | 1024.2 |
| 20260502035519 | 42 | 174 | 0.0 | 0.0 | 0.00 | 0.00 | 0.00 | 96 | 1023.8 |
| 20260502035205 | 42 | 174 | 0.0 | 0.0 | 0.00 | 0.00 | 0.00 | 96 | 1024.0 |
| 20260502035106 | 42 | 174 | 0.0 | 0.0 | 0.00 | 0.00 | 0.00 | 96 | 1024.2 |
| 20260502035007 | 42 | 174 | 0.0 | 0.0 | 0.00 | 0.00 | 0.00 | 96 | 1024.1 |
| 20260502034906 | 42 | 174 | 0.0 | 0.0 | 0.00 | 0.00 | 0.00 | 96 | 1024.1 |
| 20260502034815 | 42 | 174 | 0.0 | 0.0 | 0.00 | 0.00 | 0.00 | 96 | 1023.9 |
| 20260502034807 | 42 | 174 | 0.0 | 0.0 | 0.00 | 0.00 | 0.00 | 96 | 1023.9 |
| 20260502034705 | 42 | 174 | 0.0 | 0.0 | 0.00 | 0.00 | 0.00 | 96 | 1023.9 |
| 20260502034556 | 42 | 174 | 0.0 | 0.0 | 0.00 | 0.00 | 0.00 | 96 | 1024.1 |
| 20260502034454 | 42 | 174 | 0.0 | 0.0 | 0.00 | 0.00 | 0.00 | 96 | 1024.1 |
| 20260502034353 | 42 | 174 | 0.0 | 0.0 | 0.00 | 0.00 | 0.00 | 96 | 1024.0 |
| 20260502034314 | 42 | 174 | 0.0 | 0.0 | 0.00 | 0.00 | 0.00 | 96 | 1023.9 |
| 20260502034254 | 42 | 174 | 0.0 | 0.0 | 0.00 | 0.00 | 0.00 | 96 | 1023.9 |
| 20260502034153 | 42 | 174 | 0.0 | 0.0 | 0.00 | 0.00 | 0.00 | 96 | 1024.0 |
| 20260502034053 | 42 | 174 | 0.0 | 0.0 | 0.00 | 0.00 | 0.00 | 96 | 1024.2 |
| 20260502033948 | 41 | 174 | 0.0 | 0.0 | 0.00 | 0.00 | 0.00 | 96 | 1023.9 |
| 20260502033847 | 41 | 174 | 0.0 | 0.0 | 0.00 | 0.00 | 0.00 | 96 | 1024.0 |
| 20260502033808 | 41 | 174 | 0.0 | 0.0 | 0.00 | 0.00 | 0.00 | 96 | 1024.0 |
| 20260502033803 | 41 | 174 | 0.0 | 0.0 | 0.00 | 0.00 | 0.00 | 96 | 1023.9 |
| 20260502033756 | 41 | 174 | 0.0 | 0.0 | 0.00 | 0.00 | 0.00 | 97 | 1024.0 |
| 20260502033738 | 41 | 174 | 0.0 | 0.0 | 0.00 | 0.00 | 0.00 | 96 | 1023.8 |
| 20260502033724 | 41 | 174 | 0.0 | 0.0 | 0.00 | 0.00 | 0.00 | 96 | 1023.9 |
| 20260502033709 | 40 | 174 | 0.0 | 0.0 | 0.00 | 0.00 | 0.00 | 96 | 1024.0 |
| 20260502033436 | 40 | 174 | 0.0 | 0.0 | 0.00 | 0.00 | 0.00 | 96 | 1024.0 |
| 20260502033426 | 40 | 174 | 0.0 | 0.0 | 0.00 | 0.00 | 0.00 | 96 | 1024.2 |
| 20260502033409 | 40 | 174 | 0.0 | 0.0 | 0.00 | 0.00 | 0.00 | 96 | 1024.1 |
| 20260502033353 | 40 | 174 | 0.0 | 0.0 | 0.00 | 0.00 | 0.00 | 96 | 1024.1 |
| 20260502033337 | 40 | 174 | 0.0 | 0.0 | 0.00 | 0.00 | 0.00 | 96 | 1024.0 |
| 20260502033322 | 41 | 174 | 0.0 | 0.0 | 0.00 | 0.00 | 0.00 | 96 | 1023.9 |
| 20260502032555 | 41 | 174 | 0.0 | 0.0 | 0.00 | 0.00 | 0.00 | 95 | 1023.9 |
| 20260502032548 | 41 | 174 | 0.0 | 0.0 | 0.00 | 0.00 | 0.00 | 96 | 1024.0 |
| 20260502032532 | 41 | 174 | 0.0 | 0.0 | 0.00 | 0.00 | 0.00 | 95 | 1023.8 |
| 20260502032517 | 41 | 174 | 0.0 | 0.0 | 0.00 | 0.00 | 0.00 | 95 | 1023.9 |
| 20260502032225 | 40 | 174 | 0.0 | 0.0 | 0.00 | 0.00 | 0.00 | 95 | 1024.2 |
| 20260502032200 | 40 | 174 | 0.0 | 0.0 | 0.00 | 0.00 | 0.00 | 95 | 1024.1 |
| 20260502032144 | 40 | 174 | 0.0 | 0.0 | 0.00 | 0.00 | 0.00 | 95 | 1024.1 |
| 20260502031827 | 40 | 174 | 0.0 | 0.0 | 0.00 | 0.00 | 0.00 | 95 | 1023.9 |
| 20260502031758 | 40 | 174 | 0.0 | 0.0 | 0.00 | 0.00 | 0.00 | 95 | 1023.9 |
| 20260502031725 | 40 | 174 | 0.0 | 0.0 | 0.00 | 0.00 | 0.00 | 94 | 1024.1 |
| 20260502031623 | 40 | 174 | 0.0 | 0.0 | 0.00 | 0.00 | 0.00 | 94 | 1023.8 |
| 20260502031523 | 41 | 174 | 0.0 | 0.0 | 0.00 | 0.00 | 0.00 | 94 | 1024.0 |
| 20260502031422 | 41 | 174 | 0.0 | 0.0 | 0.00 | 0.00 | 0.00 | 94 | 1024.0 |
| 20260502031323 | 41 | 174 | 0.0 | 0.0 | 0.00 | 0.00 | 0.00 | 94 | 1024.0 |
| 20260502031255 | 42 | 174 | 0.0 | 0.0 | 0.00 | 0.00 | 0.00 | 94 | 1024.0 |
| 20260502031225 | 42 | 174 | 0.0 | 0.0 | 0.00 | 0.00 | 0.00 | 94 | 1024.1 |
| 20260502031119 | 42 | 174 | 0.0 | 0.0 | 0.00 | 0.00 | 0.00 | 94 | 1024.2 |
| 20260502031013 | 42 | 174 | 0.0 | 0.0 | 0.00 | 0.00 | 0.00 | 95 | 1023.9 |
| 20260502030912 | 42 | 174 | 0.0 | 0.0 | 0.00 | 0.00 | 0.00 | 95 | 1024.2 |
| 20260502030815 | 42 | 174 | 0.0 | 0.0 | 0.00 | 0.00 | 0.00 | 96 | 1023.8 |
| 20260502030744 | 42 | 174 | 0.0 | 0.0 | 0.00 | 0.00 | 0.00 | 96 | 1023.8 |
| 20260502030713 | 42 | 174 | 0.0 | 0.0 | 0.00 | 0.00 | 0.00 | 96 | 1024.0 |
| 20260502030613 | 42 | 174 | 0.0 | 0.0 | 0.00 | 0.00 | 0.00 | 96 | 1023.9 |
| 20260502030511 | 42 | 174 | 0.0 | 0.0 | 0.00 | 0.00 | 0.00 | 96 | 1024.0 |
| 20260502030446 | 42 | 174 | 0.0 | 0.0 | 0.00 | 0.00 | 0.00 | 96 | 1024.2 |
| 20260502030417 | 42 | 174 | 0.0 | 0.0 | 0.00 | 0.00 | 0.00 | 96 | 1024.0 |
| 20260502030404 | 41 | 174 | 0.0 | 0.0 | 0.00 | 0.00 | 0.00 | 96 | 1024.0 |
| 20260502030128 | 41 | 174 | 0.0 | 0.0 | 0.00 | 0.00 | 0.00 | 96 | 1023.9 |
| 20260502025739 | 41 | 174 | 0.0 | 0.0 | 0.00 | 0.00 | 0.00 | 96 | 1023.9 |
| 20260502025700 | 41 | 174 | 0.0 | 0.0 | 0.00 | 0.00 | 0.00 | 95 | 1024.1 |
| 20260502025601 | 41 | 174 | 0.0 | 0.0 | 0.00 | 0.00 | 0.00 | 95 | 1024.0 |
| 20260502025501 | 41 | 174 | 0.0 | 0.0 | 0.00 | 0.00 | 0.00 | 95 | 1023.9 |
| 20260502025401 | 41 | 174 | 0.0 | 0.0 | 0.00 | 0.00 | 0.00 | 95 | 1024.0 |
| 20260502025306 | 40 | 174 | 0.0 | 0.0 | 0.00 | 0.00 | 0.00 | 95 | 1024.0 |
| 20260502025232 | 40 | 174 | 0.0 | 0.0 | 0.00 | 0.00 | 0.00 | 95 | 1024.0 |
| 20260502025202 | 40 | 174 | 0.0 | 0.0 | 0.00 | 0.00 | 0.00 | 95 | 1024.0 |
| 20260502025100 | 40 | 174 | 0.0 | 0.0 | 0.00 | 0.00 | 0.00 | 95 | 1023.8 |
| 20260502025000 | 40 | 174 | 0.0 | 0.0 | 0.00 | 0.00 | 0.00 | 95 | 1024.0 |
| 20260502024859 | 40 | 174 | 0.0 | 0.0 | 0.00 | 0.00 | 0.00 | 94 | 1024.0 |
| 20260502024759 | 40 | 174 | 0.0 | 0.0 | 0.00 | 0.00 | 0.00 | 94 | 1023.7 |
| 20260502024732 | 40 | 174 | 0.0 | 0.0 | 0.00 | 0.00 | 0.00 | 94 | 1024.1 |
| 20260502024649 | 41 | 174 | 0.0 | 0.0 | 0.00 | 0.00 | 0.00 | 94 | 1024.1 |
| 20260502024613 | 41 | 174 | 0.0 | 0.0 | 0.00 | 0.00 | 0.00 | 94 | 1024.2 |
| 20260502024607 | 41 | 174 | 0.0 | 0.0 | 0.00 | 0.00 | 0.00 | 94 | 1024.2 |
| 20260502024551 | 41 | 174 | 0.0 | 0.0 | 0.00 | 0.00 | 0.00 | 94 | 1023.9 |
| 20260502024536 | 41 | 174 | 0.0 | 0.0 | 0.00 | 0.00 | 0.00 | 94 | 1023.9 |
| 20260502024520 | 41 | 174 | 0.0 | 0.0 | 0.00 | 0.00 | 0.00 | 94 | 1024.2 |
| 20260502024251 | 41 | 174 | 0.0 | 0.0 | 0.00 | 0.00 | 0.00 | 94 | 1024.2 |
| 20260502024236 | 41 | 174 | 0.0 | 0.0 | 0.00 | 0.00 | 0.00 | 94 | 1024.0 |
| 20260502024214 | 42 | 174 | 0.0 | 0.0 | 0.00 | 0.00 | 0.00 | 94 | 1024.0 |
| 20260502023926 | 42 | 174 | 0.0 | 0.0 | 0.00 | 0.00 | 0.00 | 94 | 1024.0 |
| 20260502023915 | 42 | 174 | 0.0 | 0.0 | 0.00 | 0.00 | 0.00 | 94 | 1024.0 |
| 20260502023335 | 42 | 174 | 0.0 | 0.0 | 0.00 | 0.00 | 0.00 | 94 | 1023.8 |
| 20260502023313 | 42 | 174 | 0.0 | 0.0 | 0.00 | 0.00 | 0.00 | 94 | 1024.0 |
| 20260502023252 | 42 | 174 | 0.0 | 0.0 | 0.00 | 0.00 | 0.00 | 94 | 1024.0 |
| 20260502023238 | 42 | 174 | 0.0 | 0.0 | 0.00 | 0.00 | 0.00 | 94 | 1024.1 |
| 20260502023223 | 42 | 174 | 0.0 | 0.0 | 0.00 | 0.00 | 0.00 | 94 | 1024.0 |
| 20260502022959 | 42 | 174 | 0.0 | 0.0 | 0.00 | 0.00 | 0.00 | 94 | 1024.1 |
| 20260502022942 | 42 | 174 | 0.0 | 0.0 | 0.00 | 0.00 | 0.00 | 94 | 1024.0 |
| 20260502022927 | 42 | 174 | 0.0 | 0.0 | 0.00 | 0.00 | 0.00 | 94 | 1024.0 |
| 20260502022624 | 42 | 174 | 0.0 | 0.0 | 0.00 | 0.00 | 0.00 | 94 | 1023.9 |
| 20260502022544 | 42 | 174 | 0.0 | 0.0 | 0.00 | 0.00 | 0.00 | 95 | 1023.8 |
| 20260502022537 | 42 | 174 | 0.0 | 0.0 | 0.00 | 0.00 | 0.00 | 95 | 1024.2 |
| 20260502022522 | 42 | 174 | 0.0 | 0.0 | 0.00 | 0.00 | 0.00 | 95 | 1023.9 |
| 20260502022508 | 42 | 174 | 0.0 | 0.0 | 0.00 | 0.00 | 0.00 | 95 | 1024.2 |
| 20260502022441 | 42 | 174 | 0.0 | 0.0 | 0.00 | 0.00 | 0.00 | 95 | 1023.9 |
| 20260502022209 | 42 | 174 | 0.0 | 0.0 | 0.00 | 0.00 | 0.00 | 95 | 1023.9 |
| 20260502022152 | 42 | 174 | 0.0 | 0.0 | 0.00 | 0.00 | 0.00 | 95 | 1024.0 |
| 20260502021914 | 42 | 174 | 0.0 | 0.0 | 0.00 | 0.00 | 0.00 | 95 | 1023.8 |
| 20260502021612 | 42 | 174 | 0.0 | 0.0 | 0.00 | 0.00 | 0.00 | 95 | 1024.0 |
| 20260502021513 | 42 | 174 | 0.0 | 0.0 | 0.00 | 0.00 | 0.00 | 95 | 1023.8 |
| 20260502021412 | 42 | 174 | 0.0 | 0.0 | 0.00 | 0.00 | 0.00 | 95 | 1023.9 |
| 20260502021312 | 42 | 174 | 0.0 | 0.0 | 0.00 | 0.00 | 0.00 | 95 | 1023.8 |
| 20260502021212 | 42 | 174 | 0.0 | 0.0 | 0.00 | 0.00 | 0.00 | 95 | 1024.0 |
| 20260502021157 | 42 | 174 | 0.0 | 0.0 | 0.00 | 0.00 | 0.00 | 95 | 1024.0 |
| 20260502021122 | 42 | 174 | 0.0 | 0.0 | 0.00 | 0.00 | 0.00 | 94 | 1023.8 |
| 20260502021116 | 42 | 174 | 0.0 | 0.0 | 0.00 | 0.00 | 0.00 | 94 | 1023.9 |
| 20260502021105 | 42 | 174 | 0.0 | 0.0 | 0.00 | 0.00 | 0.00 | 94 | 1024.0 |
| 20260502021056 | 42 | 174 | 0.0 | 0.0 | 0.00 | 0.00 | 0.00 | 94 | 1023.8 |
| 20260502021040 | 42 | 174 | 0.0 | 0.0 | 0.00 | 0.00 | 0.00 | 94 | 1023.9 |
| 20260502021024 | 42 | 174 | 0.0 | 0.0 | 0.00 | 0.00 | 0.00 | 94 | 1024.1 |
| 20260502021008 | 42 | 174 | 0.0 | 0.0 | 0.00 | 0.00 | 0.00 | 94 | 1023.8 |
| 20260502020741 | 42 | 174 | 0.0 | 0.0 | 0.00 | 0.00 | 0.00 | 94 | 1023.9 |
| 20260502020725 | 42 | 174 | 0.0 | 0.0 | 0.00 | 0.00 | 0.00 | 94 | 1024.0 |
| 20260502020709 | 42 | 174 | 0.0 | 0.0 | 0.00 | 0.00 | 0.00 | 94 | 1024.0 |
| 20260502020652 | 42 | 174 | 0.0 | 0.0 | 0.00 | 0.00 | 0.00 | 94 | 1023.8 |
| 20260502020628 | 42 | 174 | 0.0 | 0.0 | 0.00 | 0.00 | 0.00 | 94 | 1024.0 |